Time,TemperatureF,DewpointF,PressureIn,WindDirection,WindDirectionDegrees,WindSpeedMPH,WindSpeedGustMPH,Humidity,HourlyPrecipIn,Conditions,Clouds,dailyrainin,SoftwareType,DateUTC
2013-04-22 00:02:00,38.2,30.6,30.54,SE,127,2.0,2.0,74,0.00,,,0.00,Wunderground v.1.15,2013-04-22 04:02:00,
2013-04-22 00:03:00,38.2,31.0,30.54,SE,141,1.0,2.0,75,0.00,,,0.00,Wunderground v.1.15,2013-04-22 04:03:00,
2013-04-22 00:05:00,38.0,31.1,30.54,West,267,2.0,2.0,76,0.00,,,0.00,Wunderground v.1.15,2013-04-22 04:05:00,
2013-04-22 00:07:00,37.8,31.2,30.54,West,267,1.0,2.0,77,0.00,,,0.00,Wunderground v.1.15,2013-04-22 04:07:00,
2013-04-22 00:09:00,37.5,30.9,30.54,WSW,242,2.0,2.0,77,0.00,,,0.00,Wunderground v.1.15,2013-04-22 04:09:00,
2013-04-22 00:10:00,37.3,31.1,30.54,WSW,239,2.0,2.0,78,0.00,,,0.00,Wunderground v.1.15,2013-04-22 04:10:00,
2013-04-22 00:11:00,37.3,31.1,30.54,SW,221,1.0,2.0,78,0.00,,,0.00,Wunderground v.1.15,2013-04-22 04:11:00,
2013-04-22 00:12:00,37.1,31.2,30.54,SW,221,1.0,2.0,79,0.00,,,0.00,Wunderground v.1.15,2013-04-22 04:12:00,
2013-04-22 00:14:00,37.1,30.9,30.54,WSW,251,2.0,2.0,78,0.00,,,0.00,Wunderground v.1.15,2013-04-22 04:14:00,
2013-04-22 00:16:00,37.1,30.6,30.54,West,276,2.0,2.0,77,0.00,,,0.00,Wunderground v.1.15,2013-04-22 04:16:00,
2013-04-22 00:17:00,37.1,30.6,30.54,West,269,1.0,2.0,77,0.00,,,0.00,Wunderground v.1.15,2013-04-22 04:17:00,
2013-04-22 00:18:00,37.2,30.7,30.54,West,280,2.0,2.0,77,0.00,,,0.00,Wunderground v.1.15,2013-04-22 04:18:00,
2013-04-22 00:20:00,37.2,30.7,30.54,West,271,1.0,2.0,77,0.00,,,0.00,Wunderground v.1.15,2013-04-22 04:20:00,
2013-04-22 00:23:00,37.3,30.7,30.54,West,268,0.0,2.0,77,0.00,,,0.00,Wunderground v.1.15,2013-04-22 04:23:00,
2013-04-22 00:25:00,37.2,30.7,30.54,West,269,1.0,2.0,77,0.00,,,0.00,Wunderground v.1.15,2013-04-22 04:25:00,
2013-04-22 00:27:00,37.2,30.3,30.54,West,268,1.0,2.0,76,0.00,,,0.00,Wunderground v.1.15,2013-04-22 04:27:00,
2013-04-22 00:28:00,37.2,30.3,30.54,West,268,1.0,2.0,76,0.00,,,0.00,Wunderground v.1.15,2013-04-22 04:28:00,
2013-04-22 00:29:00,37.2,30.3,30.54,West,268,1.0,2.0,76,0.00,,,0.00,Wunderground v.1.15,2013-04-22 04:29:00,
2013-04-22 00:30:00,37.3,30.4,30.54,West,269,1.0,1.0,76,0.00,,,0.00,Wunderground v.1.15,2013-04-22 04:30:00,
2013-04-22 00:34:00,37.4,30.2,30.54,West,263,2.0,2.0,75,0.00,,,0.00,Wunderground v.1.15,2013-04-22 04:34:00,
2013-04-22 00:35:00,37.5,30.3,30.54,West,273,1.0,2.0,75,0.00,,,0.00,Wunderground v.1.15,2013-04-22 04:35:00,
2013-04-22 00:36:00,37.4,30.5,30.54,West,273,1.0,2.0,76,0.00,,,0.00,Wunderground v.1.15,2013-04-22 04:36:00,
2013-04-22 00:38:00,37.3,30.7,30.54,South,174,1.0,2.0,77,0.00,,,0.00,Wunderground v.1.15,2013-04-22 04:38:00,
2013-04-22 00:40:00,37.2,30.3,30.54,SW,233,2.0,2.0,76,0.00,,,0.00,Wunderground v.1.15,2013-04-22 04:40:00,
2013-04-22 00:41:00,37.3,30.4,30.54,West,266,2.0,2.0,76,0.00,,,0.00,Wunderground v.1.15,2013-04-22 04:41:00,
2013-04-22 00:42:00,37.4,30.2,30.54,West,266,1.0,2.0,75,0.00,,,0.00,Wunderground v.1.15,2013-04-22 04:42:00,
2013-04-22 00:46:00,37.6,30.4,30.54,WSW,252,1.0,2.0,75,0.00,,,0.00,Wunderground v.1.15,2013-04-22 04:46:00,
2013-04-22 00:47:00,37.6,30.1,30.54,West,267,2.0,2.0,74,0.00,,,0.00,Wunderground v.1.15,2013-04-22 04:47:00,
2013-04-22 00:50:00,37.9,29.7,30.54,West,264,2.0,2.0,72,0.00,,,0.00,Wunderground v.1.15,2013-04-22 04:50:00,
2013-04-22 00:52:00,38.0,30.1,30.54,West,276,2.0,3.0,73,0.00,,,0.00,Wunderground v.1.15,2013-04-22 04:52:00,
2013-04-22 00:53:00,37.9,30.0,30.54,WNW,283,3.0,3.0,73,0.00,,,0.00,Wunderground v.1.15,2013-04-22 04:53:00,
2013-04-22 00:55:00,37.9,30.0,30.54,SSW,209,0.0,3.0,73,0.00,,,0.00,Wunderground v.1.15,2013-04-22 04:55:00,
2013-04-22 00:56:00,37.9,30.0,30.54,WSW,256,0.0,3.0,73,0.00,,,0.00,Wunderground v.1.15,2013-04-22 04:56:00,
2013-04-22 00:58:00,37.8,29.9,30.54,WSW,256,0.0,3.0,73,0.00,,,0.00,Wunderground v.1.15,2013-04-22 04:58:00,
2013-04-22 01:01:00,37.8,29.9,30.54,WSW,258,0.0,1.0,73,0.00,,,0.00,Wunderground v.1.15,2013-04-22 05:01:00,
2013-04-22 01:03:00,37.7,29.8,30.54,NNE,15,0.0,1.0,73,0.00,,,0.00,Wunderground v.1.15,2013-04-22 05:03:00,
2013-04-22 01:05:00,37.6,29.7,30.54,NNE,15,1.0,1.0,73,0.00,,,0.00,Wunderground v.1.15,2013-04-22 05:05:00,
2013-04-22 01:07:00,37.6,29.4,30.54,NNE,14,1.0,1.0,72,0.00,,,0.00,Wunderground v.1.15,2013-04-22 05:07:00,
2013-04-22 01:09:00,37.9,29.3,30.54,NNE,14,0.0,1.0,71,0.00,,,0.00,Wunderground v.1.15,2013-04-22 05:09:00,
2013-04-22 01:12:00,38.1,29.5,30.54,NNE,33,1.0,2.0,71,0.00,,,0.00,Wunderground v.1.15,2013-04-22 05:12:00,
2013-04-22 01:15:00,38.3,29.4,30.54,NW,322,0.0,2.0,70,0.00,,,0.00,Wunderground v.1.15,2013-04-22 05:15:00,
2013-04-22 01:17:00,38.5,29.6,30.54,NW,321,0.0,2.0,70,0.00,,,0.00,Wunderground v.1.15,2013-04-22 05:17:00,
2013-04-22 01:18:00,38.5,29.9,30.54,NW,321,0.0,2.0,71,0.00,,,0.00,Wunderground v.1.15,2013-04-22 05:18:00,
2013-04-22 01:22:00,38.3,30.1,30.53,NW,322,0.0,1.0,72,0.00,,,0.00,Wunderground v.1.15,2013-04-22 05:22:00,
2013-04-22 01:24:00,38.1,29.9,30.53,NW,321,0.0,2.0,72,0.00,,,0.00,Wunderground v.1.15,2013-04-22 05:24:00,
2013-04-22 01:25:00,38.1,29.9,30.53,NW,321,0.0,2.0,72,0.00,,,0.00,Wunderground v.1.15,2013-04-22 05:25:00,
2013-04-22 01:26:00,38.1,29.9,30.53,WNW,288,1.0,2.0,72,0.00,,,0.00,Wunderground v.1.15,2013-04-22 05:26:00,
2013-04-22 01:28:00,38.1,29.9,30.53,WSW,238,1.0,2.0,72,0.00,,,0.00,Wunderground v.1.15,2013-04-22 05:28:00,
2013-04-22 01:29:00,38.1,29.9,30.53,WSW,238,0.0,2.0,72,0.00,,,0.00,Wunderground v.1.15,2013-04-22 05:29:00,
2013-04-22 01:34:00,38.0,29.8,30.53,West,274,0.0,1.0,72,0.00,,,0.00,Wunderground v.1.15,2013-04-22 05:34:00,
2013-04-22 01:35:00,38.0,29.8,30.53,West,274,0.0,1.0,72,0.00,,,0.00,Wunderground v.1.15,2013-04-22 05:35:00,
2013-04-22 01:36:00,37.9,29.7,30.53,West,273,0.0,1.0,72,0.00,,,0.00,Wunderground v.1.15,2013-04-22 05:36:00,
2013-04-22 01:37:00,37.8,29.9,30.53,West,273,0.0,1.0,73,0.00,,,0.00,Wunderground v.1.15,2013-04-22 05:37:00,
2013-04-22 01:38:00,37.8,30.3,30.53,West,273,0.0,1.0,74,0.00,,,0.00,Wunderground v.1.15,2013-04-22 05:38:00,
2013-04-22 01:41:00,37.5,30.0,30.53,West,273,1.0,1.0,74,0.00,,,0.00,Wunderground v.1.15,2013-04-22 05:41:00,
2013-04-22 01:43:00,37.5,30.0,30.53,SW,232,1.0,1.0,74,0.00,,,0.00,Wunderground v.1.15,2013-04-22 05:43:00,
2013-04-22 01:44:00,37.3,30.1,30.53,SW,232,0.0,1.0,75,0.00,,,0.00,Wunderground v.1.15,2013-04-22 05:44:00,
2013-04-22 01:48:00,37.2,30.0,30.53,SW,233,1.0,1.0,75,0.00,,,0.00,Wunderground v.1.15,2013-04-22 05:48:00,
2013-04-22 01:50:00,37.2,29.7,30.53,SW,232,1.0,1.0,74,0.00,,,0.00,Wunderground v.1.15,2013-04-22 05:50:00,
2013-04-22 01:51:00,37.2,29.7,30.53,SW,232,1.0,1.0,74,0.00,,,0.00,Wunderground v.1.15,2013-04-22 05:51:00,
2013-04-22 01:52:00,37.2,29.7,30.53,SW,233,1.0,1.0,74,0.00,,,0.00,Wunderground v.1.15,2013-04-22 05:52:00,
2013-04-22 01:54:00,37.2,29.7,30.53,West,277,1.0,1.0,74,0.00,,,0.00,Wunderground v.1.15,2013-04-22 05:54:00,
2013-04-22 01:56:00,37.0,29.8,30.53,West,277,1.0,1.0,75,0.00,,,0.00,Wunderground v.1.15,2013-04-22 05:56:00,
2013-04-22 01:58:00,36.9,29.7,30.53,West,277,0.0,1.0,75,0.00,,,0.00,Wunderground v.1.15,2013-04-22 05:58:00,
2013-04-22 02:00:00,36.9,29.4,30.53,West,276,1.0,1.0,74,0.00,,,0.00,Wunderground v.1.15,2013-04-22 06:00:00,
2013-04-22 02:01:00,36.8,29.6,30.53,West,277,0.0,1.0,75,0.00,,,0.00,Wunderground v.1.15,2013-04-22 06:01:00,
2013-04-22 02:03:00,36.7,29.8,30.53,West,276,0.0,1.0,76,0.00,,,0.00,Wunderground v.1.15,2013-04-22 06:03:00,
2013-04-22 02:05:00,36.5,29.7,30.53,West,276,0.0,1.0,76,0.00,,,0.00,Wunderground v.1.15,2013-04-22 06:05:00,
2013-04-22 02:06:00,36.5,29.7,30.53,West,277,0.0,1.0,76,0.00,,,0.00,Wunderground v.1.15,2013-04-22 06:06:00,
2013-04-22 02:09:00,36.2,29.7,30.53,West,277,0.0,1.0,77,0.00,,,0.00,Wunderground v.1.15,2013-04-22 06:09:00,
2013-04-22 02:10:00,36.2,29.7,30.53,West,277,0.0,1.0,77,0.00,,,0.00,Wunderground v.1.15,2013-04-22 06:10:00,
2013-04-22 02:11:00,36.1,29.6,30.53,West,276,0.0,1.0,77,0.00,,,0.00,Wunderground v.1.15,2013-04-22 06:11:00,
2013-04-22 02:12:00,36.1,29.6,30.53,West,277,0.0,1.0,77,0.00,,,0.00,Wunderground v.1.15,2013-04-22 06:12:00,
2013-04-22 02:15:00,36.0,29.5,30.53,West,276,0.0,1.0,77,0.00,,,0.00,Wunderground v.1.15,2013-04-22 06:15:00,
2013-04-22 02:16:00,36.0,29.5,30.53,West,277,0.0,1.0,77,0.00,,,0.00,Wunderground v.1.15,2013-04-22 06:16:00,
2013-04-22 02:17:00,35.9,29.4,30.53,West,277,1.0,1.0,77,0.00,,,0.00,Wunderground v.1.15,2013-04-22 06:17:00,
2013-04-22 02:21:00,35.7,29.2,30.53,West,277,0.0,0.0,77,0.00,,,0.00,Wunderground v.1.15,2013-04-22 06:21:00,
2013-04-22 02:22:00,35.6,29.4,30.53,West,277,0.0,0.0,78,0.00,,,0.00,Wunderground v.1.15,2013-04-22 06:22:00,
2013-04-22 02:23:00,35.6,29.4,30.53,West,277,0.0,0.0,78,0.00,,,0.00,Wunderground v.1.15,2013-04-22 06:23:00,
2013-04-22 02:26:00,35.4,29.2,30.53,West,277,0.0,0.0,78,0.00,,,0.00,Wunderground v.1.15,2013-04-22 06:26:00,
2013-04-22 02:27:00,35.3,29.1,30.53,West,277,0.0,0.0,78,0.00,,,0.00,Wunderground v.1.15,2013-04-22 06:27:00,
2013-04-22 02:28:00,35.2,29.0,30.53,West,277,0.0,0.0,78,0.00,,,0.00,Wunderground v.1.15,2013-04-22 06:28:00,
2013-04-22 02:31:00,35.1,28.9,30.53,West,277,1.0,1.0,78,0.00,,,0.00,Wunderground v.1.15,2013-04-22 06:31:00,
2013-04-22 02:32:00,35.1,29.2,30.53,West,276,0.0,1.0,79,0.00,,,0.00,Wunderground v.1.15,2013-04-22 06:32:00,
2013-04-22 02:33:00,35.1,29.2,30.53,WSW,246,1.0,1.0,79,0.00,,,0.00,Wunderground v.1.15,2013-04-22 06:33:00,
2013-04-22 02:37:00,34.8,29.3,30.53,WSW,246,1.0,1.0,80,0.00,,,0.00,Wunderground v.1.15,2013-04-22 06:37:00,
2013-04-22 02:38:00,34.8,29.3,30.53,WSW,245,1.0,1.0,80,0.00,,,0.00,Wunderground v.1.15,2013-04-22 06:38:00,
2013-04-22 02:39:00,34.8,29.3,30.53,WSW,245,0.0,1.0,80,0.00,,,0.00,Wunderground v.1.15,2013-04-22 06:39:00,
2013-04-22 02:42:00,34.8,29.6,30.53,WSW,245,0.0,1.0,81,0.00,,,0.00,Wunderground v.1.15,2013-04-22 06:42:00,
2013-04-22 02:43:00,34.8,29.6,30.53,WSW,246,0.0,1.0,81,0.00,,,0.00,Wunderground v.1.15,2013-04-22 06:43:00,
2013-04-22 02:44:00,34.7,29.5,30.53,WSW,245,1.0,1.0,81,0.00,,,0.00,Wunderground v.1.15,2013-04-22 06:44:00,
2013-04-22 02:47:00,34.7,29.5,30.53,WSW,246,1.0,1.0,81,0.00,,,0.00,Wunderground v.1.15,2013-04-22 06:47:00,
2013-04-22 02:49:00,34.6,29.4,30.53,WSW,245,0.0,1.0,81,0.00,,,0.00,Wunderground v.1.15,2013-04-22 06:49:00,
2013-04-22 02:53:00,34.3,29.4,30.53,WSW,245,1.0,1.0,82,0.00,,,0.00,Wunderground v.1.15,2013-04-22 06:53:00,
2013-04-22 02:54:00,34.3,29.4,30.53,WSW,246,0.0,1.0,82,0.00,,,0.00,Wunderground v.1.15,2013-04-22 06:54:00,
2013-04-22 02:55:00,34.2,29.3,30.53,WSW,246,0.0,1.0,82,0.00,,,0.00,Wunderground v.1.15,2013-04-22 06:55:00,
2013-04-22 02:58:00,34.1,29.2,30.53,WSW,245,0.0,1.0,82,0.00,,,0.00,Wunderground v.1.15,2013-04-22 06:58:00,
2013-04-22 02:59:00,34.1,29.2,30.53,WSW,246,1.0,1.0,82,0.00,,,0.00,Wunderground v.1.15,2013-04-22 06:59:00,
2013-04-22 03:00:00,34.1,29.2,30.53,WSW,253,1.0,1.0,82,0.00,,,0.00,Wunderground v.1.15,2013-04-22 07:00:00,
2013-04-22 03:03:00,34.2,29.0,30.53,WSW,253,0.0,1.0,81,0.00,,,0.00,Wunderground v.1.15,2013-04-22 07:03:00,
2013-04-22 03:05:00,34.2,29.0,30.53,WSW,252,0.0,1.0,81,0.00,,,0.00,Wunderground v.1.15,2013-04-22 07:05:00,
2013-04-22 03:06:00,34.1,28.9,30.53,WSW,253,0.0,1.0,81,0.00,,,0.00,Wunderground v.1.15,2013-04-22 07:06:00,
2013-04-22 03:08:00,34.0,29.1,30.53,WSW,253,0.0,1.0,82,0.00,,,0.00,Wunderground v.1.15,2013-04-22 07:08:00,
2013-04-22 03:09:00,34.0,29.1,30.53,WSW,253,1.0,1.0,82,0.00,,,0.00,Wunderground v.1.15,2013-04-22 07:09:00,
2013-04-22 03:10:00,33.9,29.0,30.53,WSW,253,1.0,1.0,82,0.00,,,0.00,Wunderground v.1.15,2013-04-22 07:10:00,
2013-04-22 03:11:00,33.9,29.0,30.52,WSW,253,1.0,1.0,82,0.00,,,0.00,Wunderground v.1.15,2013-04-22 07:11:00,
2013-04-22 03:12:00,33.7,29.1,30.53,WSW,252,1.0,1.0,83,0.00,,,0.00,Wunderground v.1.15,2013-04-22 07:12:00,
2013-04-22 03:13:00,33.6,29.0,30.53,WSW,253,0.0,1.0,83,0.00,,,0.00,Wunderground v.1.15,2013-04-22 07:13:00,
2013-04-22 03:15:00,33.6,29.0,30.53,WSW,253,0.0,1.0,83,0.00,,,0.00,Wunderground v.1.15,2013-04-22 07:15:00,
2013-04-22 03:16:00,33.5,28.9,30.53,WSW,253,0.0,1.0,83,0.00,,,0.00,Wunderground v.1.15,2013-04-22 07:16:00,
2013-04-22 03:17:00,33.4,28.8,30.53,WSW,253,0.0,1.0,83,0.00,,,0.00,Wunderground v.1.15,2013-04-22 07:17:00,
2013-04-22 03:18:00,33.3,28.7,30.53,WSW,253,0.0,1.0,83,0.00,,,0.00,Wunderground v.1.15,2013-04-22 07:18:00,
2013-04-22 03:20:00,33.2,28.6,30.53,WSW,253,0.0,1.0,83,0.00,,,0.00,Wunderground v.1.15,2013-04-22 07:20:00,
2013-04-22 03:21:00,33.1,28.5,30.53,WSW,253,0.0,1.0,83,0.00,,,0.00,Wunderground v.1.15,2013-04-22 07:21:00,
2013-04-22 03:22:00,33.1,28.5,30.53,WSW,253,0.0,1.0,83,0.00,,,0.00,Wunderground v.1.15,2013-04-22 07:22:00,
2013-04-22 03:24:00,33.0,28.7,30.53,WSW,253,0.0,1.0,84,0.00,,,0.00,Wunderground v.1.15,2013-04-22 07:24:00,
2013-04-22 03:25:00,32.9,28.6,30.53,WSW,253,0.0,1.0,84,0.00,,,0.00,Wunderground v.1.15,2013-04-22 07:25:00,
2013-04-22 03:26:00,32.8,28.5,30.53,WSW,253,0.0,1.0,84,0.00,,,0.00,Wunderground v.1.15,2013-04-22 07:26:00,
2013-04-22 03:28:00,32.8,28.8,30.53,WSW,253,0.0,1.0,85,0.00,,,0.00,Wunderground v.1.15,2013-04-22 07:28:00,
2013-04-22 03:29:00,32.8,28.8,30.53,WSW,253,1.0,1.0,85,0.00,,,0.00,Wunderground v.1.15,2013-04-22 07:29:00,
2013-04-22 03:31:00,32.8,29.1,30.53,WSW,253,1.0,1.0,86,0.00,,,0.00,Wunderground v.1.15,2013-04-22 07:31:00,
2013-04-22 03:32:00,32.8,29.1,30.53,WSW,253,1.0,1.0,86,0.00,,,0.00,Wunderground v.1.15,2013-04-22 07:32:00,
2013-04-22 03:33:00,32.7,29.0,30.53,WSW,252,0.0,1.0,86,0.00,,,0.00,Wunderground v.1.15,2013-04-22 07:33:00,
2013-04-22 03:35:00,32.7,29.0,30.53,WSW,252,1.0,1.0,86,0.00,,,0.00,Wunderground v.1.15,2013-04-22 07:35:00,
2013-04-22 03:36:00,32.7,29.0,30.53,WSW,252,0.0,1.0,86,0.00,,,0.00,Wunderground v.1.15,2013-04-22 07:36:00,
2013-04-22 03:37:00,32.7,29.0,30.53,WSW,252,0.0,1.0,86,0.00,,,0.00,Wunderground v.1.15,2013-04-22 07:37:00,
2013-04-22 03:39:00,32.7,29.3,30.53,WSW,252,0.0,1.0,87,0.00,,,0.00,Wunderground v.1.15,2013-04-22 07:39:00,
2013-04-22 03:40:00,32.6,29.2,30.53,WSW,251,0.0,1.0,87,0.00,,,0.00,Wunderground v.1.15,2013-04-22 07:40:00,
2013-04-22 03:42:00,32.6,29.2,30.52,WSW,252,0.0,1.0,87,0.00,,,0.00,Wunderground v.1.15,2013-04-22 07:42:00,
2013-04-22 03:45:00,32.5,29.1,30.52,WSW,251,1.0,1.0,87,0.00,,,0.00,Wunderground v.1.15,2013-04-22 07:45:00,
2013-04-22 03:46:00,32.4,29.0,30.52,WSW,251,1.0,1.0,87,0.00,,,0.00,Wunderground v.1.15,2013-04-22 07:46:00,
2013-04-22 03:47:00,32.4,29.0,30.52,WSW,255,1.0,1.0,87,0.00,,,0.00,Wunderground v.1.15,2013-04-22 07:47:00,
2013-04-22 03:48:00,32.4,29.0,30.52,WSW,256,0.0,1.0,87,0.00,,,0.00,Wunderground v.1.15,2013-04-22 07:48:00,
2013-04-22 03:50:00,32.3,28.9,30.52,WSW,256,0.0,0.0,87,0.00,,,0.00,Wunderground v.1.15,2013-04-22 07:50:00,
2013-04-22 03:51:00,32.3,28.9,30.52,WSW,255,0.0,0.0,87,0.00,,,0.00,Wunderground v.1.15,2013-04-22 07:51:00,
2013-04-22 03:52:00,32.2,28.8,30.52,WSW,256,0.0,0.0,87,0.00,,,0.00,Wunderground v.1.15,2013-04-22 07:52:00,
2013-04-22 03:53:00,32.2,28.8,30.52,WSW,256,0.0,0.0,87,0.00,,,0.00,Wunderground v.1.15,2013-04-22 07:53:00,
2013-04-22 03:55:00,32.1,28.7,30.52,WSW,256,0.0,1.0,87,0.00,,,0.00,Wunderground v.1.15,2013-04-22 07:55:00,
2013-04-22 03:56:00,32.1,28.7,30.52,WSW,256,1.0,1.0,87,0.00,,,0.00,Wunderground v.1.15,2013-04-22 07:56:00,
2013-04-22 03:58:00,32.1,28.7,30.52,WSW,255,1.0,1.0,87,0.00,,,0.00,Wunderground v.1.15,2013-04-22 07:58:00,
2013-04-22 03:59:00,32.1,28.9,30.52,WSW,257,1.0,1.0,88,0.00,,,0.00,Wunderground v.1.15,2013-04-22 07:59:00,
2013-04-22 04:00:00,32.2,29.0,30.52,WSW,257,0.0,1.0,88,0.00,,,0.00,Wunderground v.1.15,2013-04-22 08:00:00,
2013-04-22 04:01:00,32.3,29.1,30.52,WSW,255,0.0,1.0,88,0.00,,,0.00,Wunderground v.1.15,2013-04-22 08:01:00,
2013-04-22 04:02:00,32.2,29.0,30.52,WSW,256,0.0,1.0,88,0.00,,,0.00,Wunderground v.1.15,2013-04-22 08:02:00,
2013-04-22 04:03:00,32.3,29.1,30.52,WSW,256,0.0,1.0,88,0.00,,,0.00,Wunderground v.1.15,2013-04-22 08:03:00,
2013-04-22 04:04:00,32.3,29.1,30.52,WSW,256,0.0,1.0,88,0.00,,,0.00,Wunderground v.1.15,2013-04-22 08:04:00,
2013-04-22 04:05:00,32.3,29.1,30.52,WSW,255,0.0,1.0,88,0.00,,,0.00,Wunderground v.1.15,2013-04-22 08:05:00,
2013-04-22 04:07:00,32.2,29.0,30.52,WSW,256,0.0,1.0,88,0.00,,,0.00,Wunderground v.1.15,2013-04-22 08:07:00,
2013-04-22 04:09:00,32.1,28.9,30.52,WSW,255,0.0,1.0,88,0.00,,,0.00,Wunderground v.1.15,2013-04-22 08:09:00,
2013-04-22 04:10:00,32.1,28.9,30.52,WSW,255,0.0,0.0,88,0.00,,,0.00,Wunderground v.1.15,2013-04-22 08:10:00,
2013-04-22 04:12:00,32.1,28.9,30.52,WSW,255,0.0,0.0,88,0.00,,,0.00,Wunderground v.1.15,2013-04-22 08:12:00,
2013-04-22 04:13:00,32.1,28.9,30.52,WSW,256,0.0,0.0,88,0.00,,,0.00,Wunderground v.1.15,2013-04-22 08:13:00,
2013-04-22 04:14:00,32.1,28.9,30.52,WSW,256,0.0,0.0,88,0.00,,,0.00,Wunderground v.1.15,2013-04-22 08:14:00,
2013-04-22 04:15:00,32.0,28.8,30.52,WSW,255,0.0,0.0,88,0.00,,,0.00,Wunderground v.1.15,2013-04-22 08:15:00,
2013-04-22 04:16:00,32.0,28.8,30.52,WSW,256,0.0,0.0,88,0.00,,,0.00,Wunderground v.1.15,2013-04-22 08:16:00,
2013-04-22 04:17:00,31.9,28.8,30.52,WSW,255,0.0,1.0,88,0.00,,,0.00,Wunderground v.1.15,2013-04-22 08:17:00,
2013-04-22 04:18:00,31.9,28.8,30.52,WSW,255,0.0,1.0,88,0.00,,,0.00,Wunderground v.1.15,2013-04-22 08:18:00,
2013-04-22 04:19:00,31.9,28.8,30.52,WSW,256,1.0,1.0,88,0.00,,,0.00,Wunderground v.1.15,2013-04-22 08:19:00,
2013-04-22 04:20:00,31.8,28.7,30.52,WSW,255,0.0,0.0,88,0.00,,,0.00,Wunderground v.1.15,2013-04-22 08:20:00,
2013-04-22 04:21:00,31.8,28.9,30.52,WSW,255,0.0,0.0,89,0.00,,,0.00,Wunderground v.1.15,2013-04-22 08:21:00,
2013-04-22 04:22:00,31.8,28.9,30.52,WSW,255,0.0,0.0,89,0.00,,,0.00,Wunderground v.1.15,2013-04-22 08:22:00,
2013-04-22 04:23:00,31.8,28.9,30.52,WSW,255,0.0,0.0,89,0.00,,,0.00,Wunderground v.1.15,2013-04-22 08:23:00,
2013-04-22 04:24:00,31.7,28.8,30.52,WSW,256,0.0,0.0,89,0.00,,,0.00,Wunderground v.1.15,2013-04-22 08:24:00,
2013-04-22 04:26:00,31.7,28.8,30.52,WSW,255,0.0,0.0,89,0.00,,,0.00,Wunderground v.1.15,2013-04-22 08:26:00,
2013-04-22 04:28:00,31.7,28.8,30.52,WSW,256,1.0,1.0,89,0.00,,,0.00,Wunderground v.1.15,2013-04-22 08:28:00,
2013-04-22 04:29:00,31.7,28.8,30.52,West,269,1.0,1.0,89,0.00,,,0.00,Wunderground v.1.15,2013-04-22 08:29:00,
2013-04-22 04:31:00,31.6,28.7,30.52,West,268,1.0,1.0,89,0.00,,,0.00,Wunderground v.1.15,2013-04-22 08:31:00,
2013-04-22 04:33:00,31.7,28.8,30.52,West,269,0.0,1.0,89,0.00,,,0.00,Wunderground v.1.15,2013-04-22 08:33:00,
2013-04-22 04:34:00,31.7,28.8,30.52,West,268,0.0,1.0,89,0.00,,,0.00,Wunderground v.1.15,2013-04-22 08:34:00,
2013-04-22 04:35:00,31.7,28.8,30.52,West,269,0.0,1.0,89,0.00,,,0.00,Wunderground v.1.15,2013-04-22 08:35:00,
2013-04-22 04:36:00,31.6,28.7,30.52,West,269,0.0,1.0,89,0.00,,,0.00,Wunderground v.1.15,2013-04-22 08:36:00,
2013-04-22 04:37:00,31.6,28.7,30.52,West,268,0.0,1.0,89,0.00,,,0.00,Wunderground v.1.15,2013-04-22 08:37:00,
2013-04-22 04:39:00,31.6,29.0,30.52,West,268,0.0,1.0,90,0.00,,,0.00,Wunderground v.1.15,2013-04-22 08:39:00,
2013-04-22 04:40:00,31.6,29.0,30.52,West,268,0.0,0.0,90,0.00,,,0.00,Wunderground v.1.15,2013-04-22 08:40:00,
2013-04-22 04:42:00,31.6,29.0,30.52,West,268,1.0,1.0,90,0.00,,,0.00,Wunderground v.1.15,2013-04-22 08:42:00,
2013-04-22 04:44:00,31.6,29.0,30.52,West,268,0.0,1.0,90,0.00,,,0.00,Wunderground v.1.15,2013-04-22 08:44:00,
2013-04-22 04:45:00,31.6,29.0,30.52,West,268,0.0,1.0,90,0.00,,,0.00,Wunderground v.1.15,2013-04-22 08:45:00,
2013-04-22 04:47:00,31.5,28.6,30.52,West,269,0.0,1.0,89,0.00,,,0.00,Wunderground v.1.15,2013-04-22 08:47:00,
2013-04-22 04:49:00,31.5,28.6,30.52,West,268,0.0,1.0,89,0.00,,,0.00,Wunderground v.1.15,2013-04-22 08:49:00,
2013-04-22 04:50:00,31.4,28.5,30.52,West,268,0.0,0.0,89,0.00,,,0.00,Wunderground v.1.15,2013-04-22 08:50:00,
2013-04-22 04:52:00,31.3,28.4,30.52,West,268,0.0,0.0,89,0.00,,,0.00,Wunderground v.1.15,2013-04-22 08:52:00,
2013-04-22 04:53:00,31.4,28.5,30.52,West,269,0.0,0.0,89,0.00,,,0.00,Wunderground v.1.15,2013-04-22 08:53:00,
2013-04-22 04:54:00,31.3,28.7,30.52,West,268,1.0,1.0,90,0.00,,,0.00,Wunderground v.1.15,2013-04-22 08:54:00,
2013-04-22 04:55:00,31.3,28.7,30.52,West,268,0.0,1.0,90,0.00,,,0.00,Wunderground v.1.15,2013-04-22 08:55:00,
2013-04-22 04:57:00,31.4,28.8,30.52,West,268,0.0,1.0,90,0.00,,,0.00,Wunderground v.1.15,2013-04-22 08:57:00,
2013-04-22 04:58:00,31.4,28.8,30.52,West,268,0.0,1.0,90,0.00,,,0.00,Wunderground v.1.15,2013-04-22 08:58:00,
2013-04-22 04:59:00,31.4,28.8,30.52,West,269,0.0,0.0,90,0.00,,,0.00,Wunderground v.1.15,2013-04-22 08:59:00,
2013-04-22 05:01:00,31.4,28.8,30.52,West,268,0.0,0.0,90,0.00,,,0.00,Wunderground v.1.15,2013-04-22 09:01:00,
2013-04-22 05:02:00,31.3,28.7,30.52,West,269,0.0,0.0,90,0.00,,,0.00,Wunderground v.1.15,2013-04-22 09:02:00,
2013-04-22 05:03:00,31.3,28.7,30.52,West,269,0.0,0.0,90,0.00,,,0.00,Wunderground v.1.15,2013-04-22 09:03:00,
2013-04-22 05:04:00,31.2,28.3,30.52,West,269,0.0,0.0,89,0.00,,,0.00,Wunderground v.1.15,2013-04-22 09:04:00,
2013-04-22 05:06:00,31.2,28.6,30.52,West,268,1.0,1.0,90,0.00,,,0.00,Wunderground v.1.15,2013-04-22 09:06:00,
2013-04-22 05:07:00,31.2,28.6,30.52,West,269,0.0,1.0,90,0.00,,,0.00,Wunderground v.1.15,2013-04-22 09:07:00,
2013-04-22 05:08:00,31.2,28.6,30.52,West,268,0.0,1.0,90,0.00,,,0.00,Wunderground v.1.15,2013-04-22 09:08:00,
2013-04-22 05:10:00,31.2,28.6,30.52,West,269,0.0,0.0,90,0.00,,,0.00,Wunderground v.1.15,2013-04-22 09:10:00,
2013-04-22 05:11:00,31.3,28.7,30.52,West,268,0.0,0.0,90,0.00,,,0.00,Wunderground v.1.15,2013-04-22 09:11:00,
2013-04-22 05:12:00,31.3,28.7,30.52,West,269,0.0,0.0,90,0.00,,,0.00,Wunderground v.1.15,2013-04-22 09:12:00,
2013-04-22 05:13:00,31.3,28.7,30.52,West,269,0.0,0.0,90,0.00,,,0.00,Wunderground v.1.15,2013-04-22 09:13:00,
2013-04-22 05:15:00,31.3,28.7,30.52,West,268,0.0,0.0,90,0.00,,,0.00,Wunderground v.1.15,2013-04-22 09:15:00,
2013-04-22 05:17:00,31.3,28.7,30.52,West,268,0.0,0.0,90,0.00,,,0.00,Wunderground v.1.15,2013-04-22 09:17:00,
2013-04-22 05:19:00,31.3,28.7,30.52,West,269,0.0,0.0,90,0.00,,,0.00,Wunderground v.1.15,2013-04-22 09:19:00,
2013-04-22 05:20:00,31.3,28.7,30.52,West,268,0.0,0.0,90,0.00,,,0.00,Wunderground v.1.15,2013-04-22 09:20:00,
2013-04-22 05:22:00,31.2,28.3,30.52,West,269,1.0,1.0,89,0.00,,,0.00,Wunderground v.1.15,2013-04-22 09:22:00,
2013-04-22 05:23:00,31.2,28.3,30.52,West,268,0.0,1.0,89,0.00,,,0.00,Wunderground v.1.15,2013-04-22 09:23:00,
2013-04-22 05:24:00,31.2,28.3,30.52,West,268,0.0,1.0,89,0.00,,,0.00,Wunderground v.1.15,2013-04-22 09:24:00,
2013-04-22 05:25:00,31.2,28.3,30.52,West,269,0.0,1.0,89,0.00,,,0.00,Wunderground v.1.15,2013-04-22 09:25:00,
2013-04-22 05:28:00,31.2,28.3,30.52,West,268,0.0,1.0,89,0.00,,,0.00,Wunderground v.1.15,2013-04-22 09:28:00,
2013-04-22 05:29:00,31.2,28.3,30.52,West,268,0.0,1.0,89,0.00,,,0.00,Wunderground v.1.15,2013-04-22 09:29:00,
2013-04-22 05:31:00,31.2,28.3,30.52,West,268,0.0,1.0,89,0.00,,,0.00,Wunderground v.1.15,2013-04-22 09:31:00,
2013-04-22 05:33:00,31.1,28.5,30.52,West,268,1.0,1.0,90,0.00,,,0.00,Wunderground v.1.15,2013-04-22 09:33:00,
2013-04-22 05:35:00,31.1,28.5,30.52,West,269,1.0,1.0,90,0.00,,,0.00,Wunderground v.1.15,2013-04-22 09:35:00,
2013-04-22 05:36:00,31.0,28.4,30.52,West,269,0.0,1.0,90,0.00,,,0.00,Wunderground v.1.15,2013-04-22 09:36:00,
2013-04-22 05:39:00,30.8,28.2,30.52,West,269,0.0,0.0,90,0.00,,,0.00,Wunderground v.1.15,2013-04-22 09:39:00,
2013-04-22 05:40:00,30.8,28.2,30.52,West,268,0.0,0.0,90,0.00,,,0.00,Wunderground v.1.15,2013-04-22 09:40:00,
2013-04-22 05:41:00,30.8,28.2,30.52,West,269,0.0,0.0,90,0.00,,,0.00,Wunderground v.1.15,2013-04-22 09:41:00,
2013-04-22 05:42:00,30.8,28.2,30.52,West,268,0.0,0.0,90,0.00,,,0.00,Wunderground v.1.15,2013-04-22 09:42:00,
2013-04-22 05:45:00,30.7,28.1,30.52,West,268,0.0,1.0,90,0.00,,,0.00,Wunderground v.1.15,2013-04-22 09:45:00,
2013-04-22 05:46:00,30.6,28.0,30.52,West,269,0.0,1.0,90,0.00,,,0.00,Wunderground v.1.15,2013-04-22 09:46:00,
2013-04-22 05:47:00,30.6,28.0,30.52,West,269,0.0,1.0,90,0.00,,,0.00,Wunderground v.1.15,2013-04-22 09:47:00,
2013-04-22 05:50:00,30.7,28.4,30.52,West,269,0.0,0.0,91,0.00,,,0.00,Wunderground v.1.15,2013-04-22 09:50:00,
2013-04-22 05:51:00,30.8,28.5,30.51,West,269,0.0,0.0,91,0.00,,,0.00,Wunderground v.1.15,2013-04-22 09:51:00,
2013-04-22 05:52:00,30.8,28.2,30.51,West,269,0.0,0.0,90,0.00,,,0.00,Wunderground v.1.15,2013-04-22 09:52:00,
2013-04-22 05:55:00,30.8,28.2,30.52,West,269,0.0,0.0,90,0.00,,,0.00,Wunderground v.1.15,2013-04-22 09:55:00,
2013-04-22 05:56:00,30.7,28.1,30.52,West,269,0.0,0.0,90,0.00,,,0.00,Wunderground v.1.15,2013-04-22 09:56:00,
2013-04-22 05:57:00,30.7,28.1,30.52,West,269,0.0,0.0,90,0.00,,,0.00,Wunderground v.1.15,2013-04-22 09:57:00,
2013-04-22 06:01:00,30.7,28.1,30.52,West,269,0.0,1.0,90,0.00,,,0.00,Wunderground v.1.15,2013-04-22 10:01:00,
2013-04-22 06:02:00,30.7,28.1,30.52,West,269,1.0,1.0,90,0.00,,,0.00,Wunderground v.1.15,2013-04-22 10:02:00,
2013-04-22 06:03:00,30.7,28.1,30.52,West,268,1.0,1.0,90,0.00,,,0.00,Wunderground v.1.15,2013-04-22 10:03:00,
2013-04-22 06:06:00,30.6,28.0,30.52,West,268,0.0,1.0,90,0.00,,,0.00,Wunderground v.1.15,2013-04-22 10:06:00,
2013-04-22 06:08:00,30.6,28.3,30.52,West,269,1.0,1.0,91,0.00,,,0.00,Wunderground v.1.15,2013-04-22 10:08:00,
2013-04-22 06:11:00,30.7,28.4,30.52,West,268,1.0,1.0,91,0.00,,,0.00,Wunderground v.1.15,2013-04-22 10:11:00,
2013-04-22 06:12:00,30.7,28.4,30.52,West,269,1.0,1.0,91,0.00,,,0.00,Wunderground v.1.15,2013-04-22 10:12:00,
2013-04-22 06:13:00,30.7,28.4,30.52,West,268,1.0,1.0,91,0.00,,,0.00,Wunderground v.1.15,2013-04-22 10:13:00,
2013-04-22 06:16:00,30.6,28.0,30.52,West,268,0.0,1.0,90,0.00,,,0.00,Wunderground v.1.15,2013-04-22 10:16:00,
2013-04-22 06:17:00,30.6,28.0,30.52,West,268,0.0,1.0,90,0.00,,,0.00,Wunderground v.1.15,2013-04-22 10:17:00,
2013-04-22 06:18:00,30.6,28.0,30.52,West,268,0.0,1.0,90,0.00,,,0.00,Wunderground v.1.15,2013-04-22 10:18:00,
2013-04-22 06:19:00,30.6,28.0,30.52,West,269,0.0,1.0,90,0.00,,,0.00,Wunderground v.1.15,2013-04-22 10:19:00,
2013-04-22 06:22:00,30.5,27.9,30.52,West,269,0.0,1.0,90,0.00,,,0.00,Wunderground v.1.15,2013-04-22 10:22:00,
2013-04-22 06:23:00,30.5,27.9,30.52,West,268,0.0,1.0,90,0.00,,,0.00,Wunderground v.1.15,2013-04-22 10:23:00,
2013-04-22 06:24:00,30.5,28.2,30.53,West,269,0.0,1.0,91,0.00,,,0.00,Wunderground v.1.15,2013-04-22 10:24:00,
2013-04-22 06:27:00,30.5,27.9,30.53,West,269,0.0,1.0,90,0.00,,,0.00,Wunderground v.1.15,2013-04-22 10:27:00,
2013-04-22 06:28:00,30.5,27.9,30.52,West,268,0.0,1.0,90,0.00,,,0.00,Wunderground v.1.15,2013-04-22 10:28:00,
2013-04-22 06:29:00,30.5,28.2,30.53,West,269,0.0,0.0,91,0.00,,,0.00,Wunderground v.1.15,2013-04-22 10:29:00,
2013-04-22 06:30:00,30.5,28.2,30.53,West,268,0.0,0.0,91,0.00,,,0.00,Wunderground v.1.15,2013-04-22 10:30:00,
2013-04-22 06:32:00,30.5,28.2,30.53,West,269,0.0,0.0,91,0.00,,,0.00,Wunderground v.1.15,2013-04-22 10:32:00,
2013-04-22 06:34:00,30.5,28.2,30.53,WSW,253,0.0,0.0,91,0.00,,,0.00,Wunderground v.1.15,2013-04-22 10:34:00,
2013-04-22 06:35:00,30.5,28.2,30.53,WSW,253,0.0,0.0,91,0.00,,,0.00,Wunderground v.1.15,2013-04-22 10:35:00,
2013-04-22 06:39:00,30.4,28.1,30.53,WSW,253,0.0,1.0,91,0.00,,,0.00,Wunderground v.1.15,2013-04-22 10:39:00,
2013-04-22 06:40:00,30.4,28.1,30.53,WSW,253,0.0,0.0,91,0.00,,,0.00,Wunderground v.1.15,2013-04-22 10:40:00,
2013-04-22 06:44:00,30.4,28.1,30.52,WSW,253,0.0,0.0,91,0.00,,,0.00,Wunderground v.1.15,2013-04-22 10:44:00,
2013-04-22 06:45:00,30.4,28.4,30.52,WSW,253,0.0,0.0,92,0.00,,,0.00,Wunderground v.1.15,2013-04-22 10:45:00,
2013-04-22 06:46:00,30.5,28.5,30.53,WSW,253,0.0,0.0,92,0.00,,,0.00,Wunderground v.1.15,2013-04-22 10:46:00,
2013-04-22 06:50:00,30.4,28.1,30.53,WSW,253,0.0,0.0,91,0.00,,,0.00,Wunderground v.1.15,2013-04-22 10:50:00,
2013-04-22 06:51:00,30.4,28.1,30.53,WSW,253,0.0,0.0,91,0.00,,,0.00,Wunderground v.1.15,2013-04-22 10:51:00,
2013-04-22 06:55:00,30.3,28.0,30.53,WSW,253,0.0,0.0,91,0.00,,,0.00,Wunderground v.1.15,2013-04-22 10:55:00,
2013-04-22 06:56:00,30.3,28.0,30.53,WSW,253,0.0,0.0,91,0.00,,,0.00,Wunderground v.1.15,2013-04-22 10:56:00,
2013-04-22 06:57:00,30.3,28.0,30.53,WSW,253,0.0,0.0,91,0.00,,,0.00,Wunderground v.1.15,2013-04-22 10:57:00,
2013-04-22 07:00:00,30.4,28.4,30.52,WSW,253,0.0,0.0,92,0.00,,,0.00,Wunderground v.1.15,2013-04-22 11:00:00,
2013-04-22 07:01:00,30.4,28.4,30.53,WSW,253,0.0,0.0,92,0.00,,,0.00,Wunderground v.1.15,2013-04-22 11:01:00,
2013-04-22 07:03:00,30.5,28.5,30.53,WSW,253,0.0,0.0,92,0.00,,,0.00,Wunderground v.1.15,2013-04-22 11:03:00,
2013-04-22 07:06:00,30.6,28.6,30.52,WSW,255,0.0,0.0,92,0.00,,,0.00,Wunderground v.1.15,2013-04-22 11:06:00,
2013-04-22 07:07:00,30.7,28.7,30.52,WSW,253,0.0,0.0,92,0.00,,,0.00,Wunderground v.1.15,2013-04-22 11:07:00,
2013-04-22 07:09:00,30.9,28.9,30.53,WSW,255,0.0,0.0,92,0.00,,,0.00,Wunderground v.1.15,2013-04-22 11:09:00,
2013-04-22 07:11:00,31.1,29.0,30.53,WSW,253,0.0,0.0,92,0.00,,,0.00,Wunderground v.1.15,2013-04-22 11:11:00,
2013-04-22 07:12:00,31.3,29.2,30.53,WSW,255,0.0,0.0,92,0.00,,,0.00,Wunderground v.1.15,2013-04-22 11:12:00,
2013-04-22 07:14:00,31.5,29.4,30.53,WSW,255,0.0,0.0,92,0.00,,,0.00,Wunderground v.1.15,2013-04-22 11:14:00,
2013-04-22 07:17:00,31.8,29.7,30.53,WSW,255,0.0,0.0,92,0.00,,,0.00,Wunderground v.1.15,2013-04-22 11:17:00,
2013-04-22 07:18:00,32.0,29.9,30.53,WSW,255,0.0,0.0,92,0.00,,,0.00,Wunderground v.1.15,2013-04-22 11:18:00,
2013-04-22 07:19:00,32.2,30.1,30.53,WSW,255,0.0,0.0,92,0.00,,,0.00,Wunderground v.1.15,2013-04-22 11:19:00,
2013-04-22 07:21:00,32.4,30.1,30.53,WSW,255,1.0,1.0,91,0.00,,,0.00,Wunderground v.1.15,2013-04-22 11:21:00,
2013-04-22 07:22:00,32.4,30.1,30.53,WSW,255,1.0,1.0,91,0.00,,,0.00,Wunderground v.1.15,2013-04-22 11:22:00,
2013-04-22 07:24:00,32.4,29.8,30.53,WSW,255,1.0,1.0,90,0.00,,,0.00,Wunderground v.1.15,2013-04-22 11:24:00,
2013-04-22 07:27:00,32.5,29.9,30.53,WSW,255,0.0,1.0,90,0.00,,,0.00,Wunderground v.1.15,2013-04-22 11:27:00,
2013-04-22 07:28:00,32.5,29.9,30.53,WSW,255,1.0,1.0,90,0.00,,,0.00,Wunderground v.1.15,2013-04-22 11:28:00,
2013-04-22 07:29:00,32.5,29.6,30.53,WSW,255,1.0,1.0,89,0.00,,,0.00,Wunderground v.1.15,2013-04-22 11:29:00,
2013-04-22 07:30:00,32.5,29.6,30.53,WSW,255,0.0,1.0,89,0.00,,,0.00,Wunderground v.1.15,2013-04-22 11:30:00,
2013-04-22 07:32:00,32.7,29.8,30.53,WSW,255,0.0,1.0,89,0.00,,,0.00,Wunderground v.1.15,2013-04-22 11:32:00,
2013-04-22 07:33:00,32.8,29.9,30.53,WSW,255,1.0,1.0,89,0.00,,,0.00,Wunderground v.1.15,2013-04-22 11:33:00,
2013-04-22 07:35:00,32.9,30.0,30.53,WSW,255,1.0,1.0,89,0.00,,,0.00,Wunderground v.1.15,2013-04-22 11:35:00,
2013-04-22 07:38:00,33.2,30.3,30.53,WSW,255,0.0,1.0,89,0.00,,,0.00,Wunderground v.1.15,2013-04-22 11:38:00,
2013-04-22 07:40:00,33.4,30.5,30.53,WSW,255,0.0,1.0,89,0.00,,,0.00,Wunderground v.1.15,2013-04-22 11:40:00,
2013-04-22 07:41:00,33.5,30.6,30.53,WSW,255,0.0,1.0,89,0.00,,,0.00,Wunderground v.1.15,2013-04-22 11:41:00,
2013-04-22 07:43:00,34.0,31.1,30.53,WSW,255,0.0,1.0,89,0.00,,,0.00,Wunderground v.1.15,2013-04-22 11:43:00,
2013-04-22 07:44:00,34.2,31.3,30.53,WSW,255,0.0,1.0,89,0.00,,,0.00,Wunderground v.1.15,2013-04-22 11:44:00,
2013-04-22 07:45:00,34.5,31.6,30.53,WSW,255,0.0,1.0,89,0.00,,,0.00,Wunderground v.1.15,2013-04-22 11:45:00,
2013-04-22 07:46:00,34.7,31.8,30.53,WSW,255,0.0,1.0,89,0.00,,,0.00,Wunderground v.1.15,2013-04-22 11:46:00,
2013-04-22 07:48:00,35.3,32.4,30.53,WSW,255,1.0,1.0,89,0.00,,,0.00,Wunderground v.1.15,2013-04-22 11:48:00,
2013-04-22 07:50:00,35.8,32.3,30.53,WSW,255,0.0,0.0,87,0.00,,,0.00,Wunderground v.1.15,2013-04-22 11:50:00,
2013-04-22 07:52:00,36.2,31.8,30.53,NNE,33,1.0,2.0,84,0.00,,,0.00,Wunderground v.1.15,2013-04-22 11:52:00,
2013-04-22 07:53:00,36.3,31.3,30.53,NNE,33,2.0,2.0,82,0.00,,,0.00,Wunderground v.1.15,2013-04-22 11:53:00,
2013-04-22 07:55:00,36.3,31.0,30.53,NNE,26,1.0,2.0,81,0.00,,,0.00,Wunderground v.1.15,2013-04-22 11:55:00,
2013-04-22 07:57:00,36.4,30.8,30.54,NNE,29,1.0,2.0,80,0.00,,,0.00,Wunderground v.1.15,2013-04-22 11:57:00,
2013-04-22 07:58:00,36.5,30.9,30.54,NNE,22,1.0,2.0,80,0.00,,,0.00,Wunderground v.1.15,2013-04-22 11:58:00,
2013-04-22 07:59:00,36.5,30.9,30.54,NNE,21,0.0,2.0,80,0.00,,,0.00,Wunderground v.1.15,2013-04-22 11:59:00,
2013-04-22 08:00:00,36.6,31.0,30.54,NNE,21,0.0,1.0,80,0.00,,,0.00,Wunderground v.1.15,2013-04-22 12:00:00,
2013-04-22 08:02:00,36.9,31.3,30.54,NNE,23,0.0,1.0,80,0.00,,,0.00,Wunderground v.1.15,2013-04-22 12:02:00,
2013-04-22 08:04:00,37.3,31.7,30.53,NNE,20,1.0,2.0,80,0.00,,,0.00,Wunderground v.1.15,2013-04-22 12:04:00,
2013-04-22 08:05:00,37.4,31.5,30.54,NNW,341,0.0,2.0,79,0.00,,,0.00,Wunderground v.1.15,2013-04-22 12:05:00,
2013-04-22 08:06:00,37.6,31.7,30.54,NNW,341,0.0,2.0,79,0.00,,,0.00,Wunderground v.1.15,2013-04-22 12:06:00,
2013-04-22 08:08:00,37.9,32.0,30.54,NNW,342,0.0,2.0,79,0.00,,,0.00,Wunderground v.1.15,2013-04-22 12:08:00,
2013-04-22 08:09:00,38.3,32.4,30.54,NNE,32,1.0,2.0,79,0.00,,,0.00,Wunderground v.1.15,2013-04-22 12:09:00,
2013-04-22 08:10:00,38.5,32.2,30.54,NNE,33,0.0,1.0,78,0.00,,,0.00,Wunderground v.1.15,2013-04-22 12:10:00,
2013-04-22 08:12:00,38.6,32.0,30.54,NNW,343,2.0,2.0,77,0.00,,,0.00,Wunderground v.1.15,2013-04-22 12:12:00,
2013-04-22 08:13:00,38.7,32.1,30.54,NNW,328,2.0,2.0,77,0.00,,,0.00,Wunderground v.1.15,2013-04-22 12:13:00,
2013-04-22 08:15:00,38.7,31.8,30.53,NNW,328,0.0,2.0,76,0.00,,,0.00,Wunderground v.1.15,2013-04-22 12:15:00,
2013-04-22 08:17:00,38.9,32.6,30.54,NW,326,1.0,2.0,78,0.00,,,0.00,Wunderground v.1.15,2013-04-22 12:17:00,
2013-04-22 08:18:00,38.9,32.6,30.54,NE,49,2.0,2.0,78,0.00,,,0.00,Wunderground v.1.15,2013-04-22 12:18:00,
2013-04-22 08:20:00,39.3,33.0,30.54,NE,48,0.0,0.0,78,0.00,,,0.00,Wunderground v.1.15,2013-04-22 12:20:00,
2013-04-22 08:21:00,39.5,33.2,30.54,East,82,1.0,2.0,78,0.00,,,0.00,Wunderground v.1.15,2013-04-22 12:21:00,
2013-04-22 08:23:00,39.9,33.3,30.54,East,92,2.0,2.0,77,0.00,,,0.00,Wunderground v.1.15,2013-04-22 12:23:00,
2013-04-22 08:26:00,40.0,32.7,30.54,ENE,63,2.0,3.0,75,0.00,,,0.00,Wunderground v.1.15,2013-04-22 12:26:00,
2013-04-22 08:28:00,40.1,33.5,30.54,NNE,23,0.0,3.0,77,0.00,,,0.00,Wunderground v.1.15,2013-04-22 12:28:00,
2013-04-22 08:31:00,40.4,33.4,30.54,NNE,33,1.0,2.0,76,0.00,,,0.00,Wunderground v.1.15,2013-04-22 12:31:00,
2013-04-22 08:33:00,40.6,33.6,30.54,NNE,30,3.0,4.0,76,0.00,,,0.00,Wunderground v.1.15,2013-04-22 12:33:00,
2013-04-22 08:34:00,40.6,33.6,30.54,NE,37,1.0,4.0,76,0.00,,,0.00,Wunderground v.1.15,2013-04-22 12:34:00,
2013-04-22 08:36:00,40.7,33.1,30.54,NNE,26,3.0,5.0,74,0.00,,,0.00,Wunderground v.1.15,2013-04-22 12:36:00,
2013-04-22 08:37:00,40.7,33.4,30.54,NNW,348,3.0,5.0,75,0.00,,,0.00,Wunderground v.1.15,2013-04-22 12:37:00,
2013-04-22 08:38:00,40.7,33.1,30.54,NNE,20,4.0,5.0,74,0.00,,,0.00,Wunderground v.1.15,2013-04-22 12:38:00,
2013-04-22 08:40:00,40.7,33.4,30.54,NNE,33,3.0,3.0,75,0.00,,,0.00,Wunderground v.1.15,2013-04-22 12:40:00,
2013-04-22 08:41:00,40.9,33.9,30.54,NE,53,2.0,4.0,76,0.00,,,0.00,Wunderground v.1.15,2013-04-22 12:41:00,
2013-04-22 08:43:00,41.2,34.5,30.54,NNW,343,1.0,4.0,77,0.00,,,0.00,Wunderground v.1.15,2013-04-22 12:43:00,
2013-04-22 08:45:00,41.5,34.5,30.54,NE,40,4.0,5.0,76,0.00,,,0.00,Wunderground v.1.15,2013-04-22 12:45:00,
2013-04-22 08:46:00,41.5,33.8,30.54,NNE,32,3.0,5.0,74,0.00,,,0.00,Wunderground v.1.15,2013-04-22 12:46:00,
2013-04-22 08:47:00,41.5,33.8,30.54,NNE,27,3.0,5.0,74,0.00,,,0.00,Wunderground v.1.15,2013-04-22 12:47:00,
2013-04-22 08:48:00,41.5,33.8,30.54,NNE,25,7.0,8.0,74,0.00,,,0.00,Wunderground v.1.15,2013-04-22 12:48:00,
2013-04-22 08:49:00,41.5,33.8,30.53,NNE,25,5.0,8.0,74,0.00,,,0.00,Wunderground v.1.15,2013-04-22 12:49:00,
2013-04-22 08:50:00,41.5,33.8,30.53,NNE,14,3.0,3.0,74,0.00,,,0.00,Wunderground v.1.15,2013-04-22 12:50:00,
2013-04-22 08:51:00,41.5,34.2,30.53,NNE,18,4.0,4.0,75,0.00,,,0.00,Wunderground v.1.15,2013-04-22 12:51:00,
2013-04-22 08:53:00,41.7,34.4,30.53,North,5,2.0,5.0,75,0.00,,,0.00,Wunderground v.1.15,2013-04-22 12:53:00,
2013-04-22 08:54:00,41.9,34.9,30.53,NNE,16,3.0,5.0,76,0.00,,,0.00,Wunderground v.1.15,2013-04-22 12:54:00,
2013-04-22 08:55:00,41.9,34.9,30.53,NNE,29,2.0,5.0,76,0.00,,,0.00,Wunderground v.1.15,2013-04-22 12:55:00,
2013-04-22 08:56:00,42.1,34.7,30.53,North,6,4.0,8.0,75,0.00,,,0.00,Wunderground v.1.15,2013-04-22 12:56:00,
2013-04-22 08:59:00,42.3,34.9,30.53,NE,37,6.0,8.0,75,0.00,,,0.00,Wunderground v.1.15,2013-04-22 12:59:00,
2013-04-22 09:00:00,42.5,34.8,30.53,NE,36,7.0,8.0,74,0.00,,,0.00,Wunderground v.1.15,2013-04-22 13:00:00,
2013-04-22 09:01:00,42.6,34.5,30.53,NE,48,4.0,9.0,73,0.00,,,0.00,Wunderground v.1.15,2013-04-22 13:01:00,
2013-04-22 09:04:00,42.7,34.3,30.53,NE,35,5.0,10.0,72,0.00,,,0.00,Wunderground v.1.15,2013-04-22 13:04:00,
2013-04-22 09:05:00,42.8,34.4,30.53,ENE,66,7.0,10.0,72,0.00,,,0.00,Wunderground v.1.15,2013-04-22 13:05:00,
2013-04-22 09:06:00,42.9,34.5,30.53,NNE,25,6.0,10.0,72,0.00,,,0.00,Wunderground v.1.15,2013-04-22 13:06:00,
2013-04-22 09:09:00,43.1,35.0,30.53,NNE,15,4.0,7.0,73,0.00,,,0.00,Wunderground v.1.15,2013-04-22 13:09:00,
2013-04-22 09:10:00,43.2,34.8,30.53,North,352,2.0,7.0,72,0.00,,,0.00,Wunderground v.1.15,2013-04-22 13:10:00,
2013-04-22 09:12:00,43.4,35.0,30.53,NE,43,2.0,7.0,72,0.00,,,0.00,Wunderground v.1.15,2013-04-22 13:12:00,
2013-04-22 09:15:00,43.9,35.8,30.53,North,7,5.0,7.0,73,0.00,,,0.00,Wunderground v.1.15,2013-04-22 13:15:00,
2013-04-22 09:17:00,44.1,34.9,30.53,NNE,12,5.0,7.0,70,0.00,,,0.00,Wunderground v.1.15,2013-04-22 13:17:00,
2013-04-22 09:18:00,44.1,34.9,30.53,NNE,18,7.0,7.0,70,0.00,,,0.00,Wunderground v.1.15,2013-04-22 13:18:00,
2013-04-22 09:21:00,44.2,34.7,30.53,North,5,6.0,10.0,69,0.00,,,0.00,Wunderground v.1.15,2013-04-22 13:21:00,
2013-04-22 09:22:00,44.3,34.4,30.53,NNE,20,6.0,10.0,68,0.00,,,0.00,Wunderground v.1.15,2013-04-22 13:22:00,
2013-04-22 09:23:00,44.3,34.4,30.53,NNE,13,7.0,10.0,68,0.00,,,0.00,Wunderground v.1.15,2013-04-22 13:23:00,
2013-04-22 09:26:00,44.5,34.6,30.53,NNE,15,5.0,10.0,68,0.00,,,0.00,Wunderground v.1.15,2013-04-22 13:26:00,
2013-04-22 09:28:00,44.7,35.1,30.53,NNW,330,4.0,10.0,69,0.00,,,0.00,Wunderground v.1.15,2013-04-22 13:28:00,
2013-04-22 09:31:00,45.2,34.9,30.53,NNE,25,5.0,5.0,67,0.00,,,0.00,Wunderground v.1.15,2013-04-22 13:31:00,
2013-04-22 09:32:00,45.3,35.0,30.53,NNE,16,3.0,5.0,67,0.00,,,0.00,Wunderground v.1.15,2013-04-22 13:32:00,
2013-04-22 09:33:00,45.3,35.4,30.53,NNE,33,7.0,9.0,68,0.00,,,0.00,Wunderground v.1.15,2013-04-22 13:33:00,
2013-04-22 09:36:00,45.4,33.9,30.53,NE,40,7.0,11.0,64,0.00,,,0.00,Wunderground v.1.15,2013-04-22 13:36:00,
2013-04-22 09:37:00,45.4,33.9,30.53,NE,51,7.0,11.0,64,0.00,,,0.00,Wunderground v.1.15,2013-04-22 13:37:00,
2013-04-22 09:38:00,45.4,33.5,30.53,ENE,59,9.0,11.0,63,0.00,,,0.00,Wunderground v.1.15,2013-04-22 13:38:00,
2013-04-22 09:42:00,45.9,34.4,30.52,NNE,18,7.0,8.0,64,0.00,,,0.00,Wunderground v.1.15,2013-04-22 13:42:00,
2013-04-22 09:43:00,45.9,33.2,30.53,NNE,19,3.0,11.0,61,0.00,,,0.00,Wunderground v.1.15,2013-04-22 13:43:00,
2013-04-22 09:44:00,45.9,33.2,30.53,NNE,33,8.0,11.0,61,0.00,,,0.00,Wunderground v.1.15,2013-04-22 13:44:00,
2013-04-22 09:48:00,45.9,34.0,30.53,NW,319,6.0,11.0,63,0.00,,,0.00,Wunderground v.1.15,2013-04-22 13:48:00,
2013-04-22 09:49:00,45.9,32.4,30.53,NNW,328,4.0,11.0,59,0.00,,,0.00,Wunderground v.1.15,2013-04-22 13:49:00,
2013-04-22 09:53:00,45.8,32.3,30.53,NE,49,4.0,9.0,59,0.00,,,0.00,Wunderground v.1.15,2013-04-22 13:53:00,
2013-04-22 09:55:00,46.1,33.8,30.53,East,79,1.0,9.0,62,0.00,,,0.00,Wunderground v.1.15,2013-04-22 13:55:00,
2013-04-22 09:58:00,46.3,32.7,30.52,ENE,77,3.0,11.0,59,0.00,,,0.00,Wunderground v.1.15,2013-04-22 13:58:00,
2013-04-22 09:59:00,46.3,32.7,30.52,NE,44,8.0,8.0,59,0.00,,,0.00,Wunderground v.1.15,2013-04-22 13:59:00,
2013-04-22 10:00:00,46.4,33.7,30.52,NE,47,8.0,10.0,61,0.00,,,0.00,Wunderground v.1.15,2013-04-22 14:00:00,
2013-04-22 10:01:00,46.4,33.7,30.52,NNE,30,6.0,10.0,61,0.00,,,0.00,Wunderground v.1.15,2013-04-22 14:01:00,
2013-04-22 10:03:00,46.3,33.2,30.52,NNE,15,2.0,10.0,60,0.00,,,0.00,Wunderground v.1.15,2013-04-22 14:03:00,
2013-04-22 10:04:00,46.4,33.7,30.52,NE,50,4.0,10.0,61,0.00,,,0.00,Wunderground v.1.15,2013-04-22 14:04:00,
2013-04-22 10:05:00,46.5,33.4,30.52,NNE,33,7.0,10.0,60,0.00,,,0.00,Wunderground v.1.15,2013-04-22 14:05:00,
2013-04-22 10:07:00,46.5,32.5,30.52,North,9,4.0,10.0,58,0.00,,,0.00,Wunderground v.1.15,2013-04-22 14:07:00,
2013-04-22 10:09:00,46.8,33.6,30.52,NNE,31,8.0,8.0,60,0.00,,,0.00,Wunderground v.1.15,2013-04-22 14:09:00,
2013-04-22 10:11:00,46.9,32.9,30.52,NNE,21,5.0,8.0,58,0.00,,,0.00,Wunderground v.1.15,2013-04-22 14:11:00,
2013-04-22 10:12:00,46.9,32.4,30.52,NNE,24,6.0,9.0,57,0.00,,,0.00,Wunderground v.1.15,2013-04-22 14:12:00,
2013-04-22 10:15:00,46.9,32.0,30.52,NE,40,5.0,9.0,56,0.00,,,0.00,Wunderground v.1.15,2013-04-22 14:15:00,
2013-04-22 10:16:00,46.9,31.6,30.52,NNE,25,7.0,9.0,55,0.00,,,0.00,Wunderground v.1.15,2013-04-22 14:16:00,
2013-04-22 10:18:00,46.9,32.4,30.52,NE,42,3.0,9.0,57,0.00,,,0.00,Wunderground v.1.15,2013-04-22 14:18:00,
2013-04-22 10:20:00,47.3,33.7,30.52,NE,50,4.0,7.0,59,0.00,,,0.00,Wunderground v.1.15,2013-04-22 14:20:00,
2013-04-22 10:21:00,47.3,32.4,30.52,NE,50,7.0,9.0,56,0.00,,,0.00,Wunderground v.1.15,2013-04-22 14:21:00,
2013-04-22 10:23:00,47.1,30.8,30.52,NE,48,7.0,11.0,53,0.00,,,0.00,Wunderground v.1.15,2013-04-22 14:23:00,
2013-04-22 10:25:00,47.0,32.1,30.52,NNW,330,7.0,11.0,56,0.00,,,0.00,Wunderground v.1.15,2013-04-22 14:25:00,
2013-04-22 10:26:00,47.1,32.2,30.52,NNE,29,4.0,11.0,56,0.00,,,0.00,Wunderground v.1.15,2013-04-22 14:26:00,
2013-04-22 10:27:00,47.1,32.2,30.52,North,6,7.0,11.0,56,0.00,,,0.00,Wunderground v.1.15,2013-04-22 14:27:00,
2013-04-22 10:28:00,47.1,32.2,30.52,WSW,246,1.0,11.0,56,0.00,,,0.00,Wunderground v.1.15,2013-04-22 14:28:00,
2013-04-22 10:31:00,47.4,32.0,30.52,ENE,65,2.0,10.0,55,0.00,,,0.00,Wunderground v.1.15,2013-04-22 14:31:00,
2013-04-22 10:32:00,47.5,33.4,30.52,NE,46,3.0,10.0,58,0.00,,,0.00,Wunderground v.1.15,2013-04-22 14:32:00,
2013-04-22 10:33:00,47.7,33.6,30.52,NE,46,11.0,11.0,58,0.00,,,0.00,Wunderground v.1.15,2013-04-22 14:33:00,
2013-04-22 10:34:00,47.7,33.6,30.52,NW,325,3.0,11.0,58,0.00,,,0.00,Wunderground v.1.15,2013-04-22 14:34:00,
2013-04-22 10:37:00,47.8,31.5,30.51,NE,41,8.0,11.0,53,0.00,,,0.00,Wunderground v.1.15,2013-04-22 14:37:00,
2013-04-22 10:39:00,47.7,32.3,30.51,NNE,24,6.0,11.0,55,0.00,,,0.00,Wunderground v.1.15,2013-04-22 14:39:00,
2013-04-22 10:40:00,47.5,31.2,30.51,ENE,57,7.0,7.0,53,0.00,,,0.00,Wunderground v.1.15,2013-04-22 14:40:00,
2013-04-22 10:42:00,47.4,32.5,30.51,NW,310,6.0,9.0,56,0.00,,,0.00,Wunderground v.1.15,2013-04-22 14:42:00,
2013-04-22 10:43:00,47.5,32.6,30.51,NW,309,3.0,9.0,56,0.00,,,0.00,Wunderground v.1.15,2013-04-22 14:43:00,
2013-04-22 10:44:00,47.6,31.3,30.51,NE,51,8.0,9.0,53,0.00,,,0.00,Wunderground v.1.15,2013-04-22 14:44:00,
2013-04-22 10:45:00,47.7,31.4,30.51,NNE,26,2.0,10.0,53,0.00,,,0.00,Wunderground v.1.15,2013-04-22 14:45:00,
2013-04-22 10:48:00,47.9,31.1,30.51,NNE,15,7.0,12.0,52,0.00,,,0.00,Wunderground v.1.15,2013-04-22 14:48:00,
2013-04-22 10:49:00,47.9,30.6,30.51,North,7,6.0,12.0,51,0.00,,,0.00,Wunderground v.1.15,2013-04-22 14:49:00,
2013-04-22 10:50:00,47.8,31.5,30.51,NW,319,3.0,6.0,53,0.00,,,0.00,Wunderground v.1.15,2013-04-22 14:50:00,
2013-04-22 10:53:00,47.9,31.1,30.51,NNE,22,4.0,7.0,52,0.00,,,0.00,Wunderground v.1.15,2013-04-22 14:53:00,
2013-04-22 10:54:00,47.9,31.1,30.51,North,3,5.0,7.0,52,0.00,,,0.00,Wunderground v.1.15,2013-04-22 14:54:00,
2013-04-22 10:56:00,48.1,30.8,30.51,NW,321,8.0,8.0,51,0.00,,,0.00,Wunderground v.1.15,2013-04-22 14:56:00,
2013-04-22 10:59:00,48.3,31.0,30.51,NNE,16,6.0,8.0,51,0.00,,,0.00,Wunderground v.1.15,2013-04-22 14:59:00,
2013-04-22 11:00:00,48.4,30.6,30.51,NW,304,3.0,6.0,50,0.00,,,0.00,Wunderground v.1.15,2013-04-22 15:00:00,
2013-04-22 11:01:00,48.4,31.1,30.51,WNW,289,5.0,6.0,51,0.00,,,0.00,Wunderground v.1.15,2013-04-22 15:01:00,
2013-04-22 11:04:00,48.5,30.2,30.51,NE,48,2.0,8.0,49,0.00,,,0.00,Wunderground v.1.15,2013-04-22 15:04:00,
2013-04-22 11:05:00,48.6,30.8,30.51,NNW,332,2.0,8.0,50,0.00,,,0.00,Wunderground v.1.15,2013-04-22 15:05:00,
2013-04-22 11:06:00,48.7,30.9,30.51,North,357,3.0,8.0,50,0.00,,,0.00,Wunderground v.1.15,2013-04-22 15:06:00,
2013-04-22 11:09:00,48.9,30.6,30.50,NNW,342,4.0,8.0,49,0.00,,,0.00,Wunderground v.1.15,2013-04-22 15:09:00,
2013-04-22 11:10:00,48.9,30.6,30.50,NNW,344,4.0,5.0,49,0.00,,,0.00,Wunderground v.1.15,2013-04-22 15:10:00,
2013-04-22 11:11:00,49.0,30.7,30.50,North,1,3.0,7.0,49,0.00,,,0.00,Wunderground v.1.15,2013-04-22 15:11:00,
2013-04-22 11:12:00,49.1,32.2,30.50,NNE,18,9.0,12.0,52,0.00,,,0.00,Wunderground v.1.15,2013-04-22 15:12:00,
2013-04-22 11:15:00,48.8,28.9,30.50,NW,319,5.0,12.0,46,0.00,,,0.00,Wunderground v.1.15,2013-04-22 15:15:00,
2013-04-22 11:16:00,48.8,30.5,30.50,NW,307,5.0,12.0,49,0.00,,,0.00,Wunderground v.1.15,2013-04-22 15:16:00,
2013-04-22 11:17:00,48.8,30.0,30.50,NNE,18,3.0,12.0,48,0.00,,,0.00,Wunderground v.1.15,2013-04-22 15:17:00,
2013-04-22 11:20:00,49.0,31.2,30.50,North,3,7.0,8.0,50,0.00,,,0.00,Wunderground v.1.15,2013-04-22 15:20:00,
2013-04-22 11:22:00,49.1,31.2,30.50,NNE,12,5.0,8.0,50,0.00,,,0.00,Wunderground v.1.15,2013-04-22 15:22:00,
2013-04-22 11:25:00,49.5,31.6,30.50,NW,310,5.0,9.0,50,0.00,,,0.00,Wunderground v.1.15,2013-04-22 15:25:00,
2013-04-22 11:27:00,49.5,31.1,30.50,WNW,297,7.0,9.0,49,0.00,,,0.00,Wunderground v.1.15,2013-04-22 15:27:00,
2013-04-22 11:28:00,49.4,28.9,30.50,NNE,29,6.0,9.0,45,0.00,,,0.00,Wunderground v.1.15,2013-04-22 15:28:00,
2013-04-22 11:31:00,49.1,29.7,30.50,NW,315,11.0,11.0,47,0.00,,,0.00,Wunderground v.1.15,2013-04-22 15:31:00,
2013-04-22 11:32:00,49.0,29.6,30.50,NW,324,8.0,12.0,47,0.00,,,0.00,Wunderground v.1.15,2013-04-22 15:32:00,
2013-04-22 11:34:00,48.9,31.1,30.50,NW,321,2.0,12.0,50,0.00,,,0.00,Wunderground v.1.15,2013-04-22 15:34:00,
2013-04-22 11:36:00,49.3,32.9,30.50,NW,311,4.0,12.0,53,0.00,,,0.00,Wunderground v.1.15,2013-04-22 15:36:00,
2013-04-22 11:37:00,49.4,31.5,30.50,WNW,301,7.0,12.0,50,0.00,,,0.00,Wunderground v.1.15,2013-04-22 15:37:00,
2013-04-22 11:38:00,49.3,30.4,30.50,North,1,4.0,12.0,48,0.00,,,0.00,Wunderground v.1.15,2013-04-22 15:38:00,
2013-04-22 11:39:00,49.3,30.4,30.50,WNW,297,1.0,12.0,48,0.00,,,0.00,Wunderground v.1.15,2013-04-22 15:39:00,
2013-04-22 11:41:00,49.5,32.1,30.50,NNE,16,8.0,8.0,51,0.00,,,0.00,Wunderground v.1.15,2013-04-22 15:41:00,
2013-04-22 11:42:00,49.6,30.7,30.50,WNW,287,6.0,8.0,48,0.00,,,0.00,Wunderground v.1.15,2013-04-22 15:42:00,
2013-04-22 11:43:00,49.6,30.7,30.50,NNW,347,4.0,8.0,48,0.00,,,0.00,Wunderground v.1.15,2013-04-22 15:43:00,
2013-04-22 11:44:00,49.6,30.2,30.50,NNE,13,6.0,9.0,47,0.00,,,0.00,Wunderground v.1.15,2013-04-22 15:44:00,
2013-04-22 11:47:00,49.5,29.6,30.50,NE,36,2.0,9.0,46,0.00,,,0.00,Wunderground v.1.15,2013-04-22 15:47:00,
2013-04-22 11:48:00,49.5,29.6,30.50,West,264,2.0,9.0,46,0.00,,,0.00,Wunderground v.1.15,2013-04-22 15:48:00,
2013-04-22 11:49:00,49.6,30.2,30.50,NW,309,4.0,9.0,47,0.00,,,0.00,Wunderground v.1.15,2013-04-22 15:49:00,
2013-04-22 11:50:00,49.6,30.2,30.50,NNE,22,7.0,7.0,47,0.00,,,0.00,Wunderground v.1.15,2013-04-22 15:50:00,
2013-04-22 11:53:00,49.9,32.0,30.50,NE,39,11.0,11.0,50,0.00,,,0.00,Wunderground v.1.15,2013-04-22 15:53:00,
2013-04-22 11:54:00,50.0,30.5,30.50,NNE,23,6.0,14.0,47,0.00,,,0.00,Wunderground v.1.15,2013-04-22 15:54:00,
2013-04-22 11:56:00,50.1,31.7,30.50,North,352,9.0,14.0,49,0.00,,,0.00,Wunderground v.1.15,2013-04-22 15:56:00,
2013-04-22 11:58:00,50.2,31.2,30.50,NNE,12,10.0,14.0,48,0.00,,,0.00,Wunderground v.1.15,2013-04-22 15:58:00,
2013-04-22 12:00:00,50.2,30.2,30.50,NW,310,8.0,10.0,46,0.00,,,0.00,Wunderground v.1.15,2013-04-22 16:00:00,
2013-04-22 12:01:00,50.3,30.8,30.50,NNW,344,5.0,10.0,47,0.00,,,0.00,Wunderground v.1.15,2013-04-22 16:01:00,
2013-04-22 12:03:00,50.4,31.4,30.50,NNE,23,3.0,10.0,48,0.00,,,0.00,Wunderground v.1.15,2013-04-22 16:03:00,
2013-04-22 12:04:00,50.5,31.5,30.49,NNE,33,9.0,10.0,48,0.00,,,0.00,Wunderground v.1.15,2013-04-22 16:04:00,
2013-04-22 12:05:00,50.5,32.0,30.49,NW,316,3.0,10.0,49,0.00,,,0.00,Wunderground v.1.15,2013-04-22 16:05:00,
2013-04-22 12:07:00,50.8,32.8,30.49,NW,309,8.0,10.0,50,0.00,,,0.00,Wunderground v.1.15,2013-04-22 16:07:00,
2013-04-22 12:08:00,50.9,30.8,30.49,NW,315,6.0,10.0,46,0.00,,,0.00,Wunderground v.1.15,2013-04-22 16:08:00,
2013-04-22 12:09:00,50.8,30.2,30.49,WNW,300,6.0,10.0,45,0.00,,,0.00,Wunderground v.1.15,2013-04-22 16:09:00,
2013-04-22 12:11:00,50.8,31.8,30.49,WNW,299,5.0,9.0,48,0.00,,,0.00,Wunderground v.1.15,2013-04-22 16:11:00,
2013-04-22 12:12:00,51.0,31.5,30.48,NW,309,3.0,9.0,47,0.00,,,0.00,Wunderground v.1.15,2013-04-22 16:12:00,
2013-04-22 12:13:00,51.2,31.1,30.49,NNW,333,10.0,10.0,46,0.00,,,0.00,Wunderground v.1.15,2013-04-22 16:13:00,
2013-04-22 12:14:00,51.1,31.0,30.48,NNW,334,7.0,13.0,46,0.00,,,0.00,Wunderground v.1.15,2013-04-22 16:14:00,
2013-04-22 12:16:00,51.1,32.6,30.48,NNW,340,3.0,13.0,49,0.00,,,0.00,Wunderground v.1.15,2013-04-22 16:16:00,
2013-04-22 12:17:00,51.2,32.2,30.48,NW,316,2.0,13.0,48,0.00,,,0.00,Wunderground v.1.15,2013-04-22 16:17:00,
2013-04-22 12:18:00,51.4,33.9,30.48,North,359,9.0,13.0,51,0.00,,,0.00,Wunderground v.1.15,2013-04-22 16:18:00,
2013-04-22 12:20:00,51.2,30.6,30.48,North,354,7.0,7.0,45,0.00,,,0.00,Wunderground v.1.15,2013-04-22 16:20:00,
2013-04-22 12:21:00,51.1,31.0,30.48,North,351,4.0,7.0,46,0.00,,,0.00,Wunderground v.1.15,2013-04-22 16:21:00,
2013-04-22 12:23:00,51.3,32.8,30.48,NNW,335,5.0,10.0,49,0.00,,,0.00,Wunderground v.1.15,2013-04-22 16:23:00,
2013-04-22 12:25:00,51.2,32.7,30.48,North,352,4.0,10.0,49,0.00,,,0.00,Wunderground v.1.15,2013-04-22 16:25:00,
2013-04-22 12:27:00,51.2,31.6,30.48,NW,307,2.0,10.0,47,0.00,,,0.00,Wunderground v.1.15,2013-04-22 16:27:00,
2013-04-22 12:28:00,51.4,32.9,30.48,NW,315,7.0,10.0,49,0.00,,,0.00,Wunderground v.1.15,2013-04-22 16:28:00,
2013-04-22 12:29:00,51.5,33.0,30.48,NNW,336,6.0,10.0,49,0.00,,,0.00,Wunderground v.1.15,2013-04-22 16:29:00,
2013-04-22 12:30:00,51.5,33.0,30.48,NNE,12,5.0,9.0,49,0.00,,,0.00,Wunderground v.1.15,2013-04-22 16:30:00,
2013-04-22 12:31:00,51.5,33.0,30.48,WNW,297,5.0,9.0,49,0.00,,,0.00,Wunderground v.1.15,2013-04-22 16:31:00,
2013-04-22 12:33:00,51.5,31.4,30.48,WNW,293,7.0,9.0,46,0.00,,,0.00,Wunderground v.1.15,2013-04-22 16:33:00,
2013-04-22 12:34:00,51.6,30.9,30.48,NNW,344,9.0,10.0,45,0.00,,,0.00,Wunderground v.1.15,2013-04-22 16:34:00,
2013-04-22 12:35:00,51.5,30.3,30.48,NNE,18,3.0,14.0,44,0.00,,,0.00,Wunderground v.1.15,2013-04-22 16:35:00,
2013-04-22 12:36:00,51.6,32.0,30.47,North,7,7.0,14.0,47,0.00,,,0.00,Wunderground v.1.15,2013-04-22 16:36:00,
2013-04-22 12:39:00,51.7,31.6,30.47,NNE,15,8.0,14.0,46,0.00,,,0.00,Wunderground v.1.15,2013-04-22 16:39:00,
2013-04-22 12:40:00,51.8,31.7,30.47,NNE,18,10.0,10.0,46,0.00,,,0.00,Wunderground v.1.15,2013-04-22 16:40:00,
2013-04-22 12:41:00,51.9,31.7,30.47,NNW,330,5.0,10.0,46,0.00,,,0.00,Wunderground v.1.15,2013-04-22 16:41:00,
2013-04-22 12:44:00,51.7,31.0,30.47,NW,317,5.0,10.0,45,0.00,,,0.00,Wunderground v.1.15,2013-04-22 16:44:00,
2013-04-22 12:45:00,51.7,30.5,30.47,West,277,6.0,10.0,44,0.00,,,0.00,Wunderground v.1.15,2013-04-22 16:45:00,
2013-04-22 12:47:00,51.8,31.7,30.47,NW,308,3.0,10.0,46,0.00,,,0.00,Wunderground v.1.15,2013-04-22 16:47:00,
2013-04-22 12:49:00,52.2,32.0,30.47,NNW,346,2.0,5.0,46,0.00,,,0.00,Wunderground v.1.15,2013-04-22 16:49:00,
2013-04-22 12:50:00,52.3,33.2,30.47,NW,316,3.0,5.0,48,0.00,,,0.00,Wunderground v.1.15,2013-04-22 16:50:00,
2013-04-22 12:52:00,52.4,31.7,30.46,WNW,300,5.0,8.0,45,0.00,,,0.00,Wunderground v.1.15,2013-04-22 16:52:00,
2013-04-22 12:53:00,52.3,31.0,30.46,NW,311,7.0,11.0,44,0.00,,,0.00,Wunderground v.1.15,2013-04-22 16:53:00,
2013-04-22 12:55:00,52.2,31.5,30.46,NNE,20,9.0,11.0,45,0.00,,,0.00,Wunderground v.1.15,2013-04-22 16:55:00,
2013-04-22 12:57:00,52.2,31.5,30.46,NE,37,9.0,13.0,45,0.00,,,0.00,Wunderground v.1.15,2013-04-22 16:57:00,
2013-04-22 12:59:00,52.3,32.6,30.46,NNE,18,9.0,13.0,47,0.00,,,0.00,Wunderground v.1.15,2013-04-22 16:59:00,
2013-04-22 13:00:00,52.3,31.6,30.46,NE,40,6.0,7.0,45,0.00,,,0.00,Wunderground v.1.15,2013-04-22 17:00:00,
2013-04-22 13:01:00,52.3,31.0,30.46,NW,311,6.0,10.0,44,0.00,,,0.00,Wunderground v.1.15,2013-04-22 17:01:00,
2013-04-22 13:03:00,52.3,30.4,30.46,NNE,15,8.0,10.0,43,0.00,,,0.00,Wunderground v.1.15,2013-04-22 17:03:00,
2013-04-22 13:04:00,52.4,31.1,30.46,North,11,5.0,10.0,44,0.00,,,0.00,Wunderground v.1.15,2013-04-22 17:04:00,
2013-04-22 13:05:00,52.4,31.1,30.46,NW,308,6.0,10.0,44,0.00,,,0.00,Wunderground v.1.15,2013-04-22 17:05:00,
2013-04-22 13:07:00,52.6,31.3,30.46,North,6,8.0,15.0,44,0.00,,,0.00,Wunderground v.1.15,2013-04-22 17:07:00,
2013-04-22 13:08:00,52.5,30.6,30.45,West,265,2.0,15.0,43,0.00,,,0.00,Wunderground v.1.15,2013-04-22 17:08:00,
2013-04-22 13:09:00,52.5,31.2,30.45,NW,310,3.0,15.0,44,0.00,,,0.00,Wunderground v.1.15,2013-04-22 17:09:00,
2013-04-22 13:10:00,52.7,32.5,30.45,WNW,290,3.0,6.0,46,0.00,,,0.00,Wunderground v.1.15,2013-04-22 17:10:00,
2013-04-22 13:13:00,53.1,32.8,30.45,NNE,23,2.0,6.0,46,0.00,,,0.00,Wunderground v.1.15,2013-04-22 17:13:00,
2013-04-22 13:14:00,53.4,34.2,30.45,NW,326,8.0,8.0,48,0.00,,,0.00,Wunderground v.1.15,2013-04-22 17:14:00,
2013-04-22 13:15:00,53.5,34.3,30.45,NW,321,4.0,8.0,48,0.00,,,0.00,Wunderground v.1.15,2013-04-22 17:15:00,
2013-04-22 13:18:00,53.6,31.6,30.45,NNE,18,6.0,9.0,43,0.00,,,0.00,Wunderground v.1.15,2013-04-22 17:18:00,
2013-04-22 13:19:00,53.5,32.1,30.45,NE,51,9.0,10.0,44,0.00,,,0.00,Wunderground v.1.15,2013-04-22 17:19:00,
2013-04-22 13:20:00,53.5,32.1,30.44,NNE,29,10.0,10.0,44,0.00,,,0.00,Wunderground v.1.15,2013-04-22 17:20:00,
2013-04-22 13:23:00,53.3,30.8,30.44,NE,49,5.0,13.0,42,0.00,,,0.00,Wunderground v.1.15,2013-04-22 17:23:00,
2013-04-22 13:24:00,53.3,30.8,30.44,NNE,22,4.0,13.0,42,0.00,,,0.00,Wunderground v.1.15,2013-04-22 17:24:00,
2013-04-22 13:25:00,53.3,31.4,30.44,NW,323,8.0,13.0,43,0.00,,,0.00,Wunderground v.1.15,2013-04-22 17:25:00,
2013-04-22 13:26:00,53.3,30.8,30.44,NNW,333,5.0,13.0,42,0.00,,,0.00,Wunderground v.1.15,2013-04-22 17:26:00,
2013-04-22 13:29:00,53.4,32.6,30.44,NNW,342,6.0,13.0,45,0.00,,,0.00,Wunderground v.1.15,2013-04-22 17:29:00,
2013-04-22 13:30:00,53.6,32.2,30.44,NNW,329,8.0,10.0,44,0.00,,,0.00,Wunderground v.1.15,2013-04-22 17:30:00,
2013-04-22 13:31:00,53.6,32.2,30.44,NW,317,4.0,10.0,44,0.00,,,0.00,Wunderground v.1.15,2013-04-22 17:31:00,
2013-04-22 13:34:00,53.7,31.7,30.44,NW,326,6.0,13.0,43,0.00,,,0.00,Wunderground v.1.15,2013-04-22 17:34:00,
2013-04-22 13:35:00,53.7,31.7,30.44,North,11,7.0,13.0,43,0.00,,,0.00,Wunderground v.1.15,2013-04-22 17:35:00,
2013-04-22 13:36:00,53.7,31.1,30.44,NE,37,5.0,13.0,42,0.00,,,0.00,Wunderground v.1.15,2013-04-22 17:36:00,
2013-04-22 13:39:00,53.9,33.0,30.44,North,11,8.0,8.0,45,0.00,,,0.00,Wunderground v.1.15,2013-04-22 17:39:00,
2013-04-22 13:40:00,54.0,34.7,30.44,NNE,25,6.0,8.0,48,0.00,,,0.00,Wunderground v.1.15,2013-04-22 17:40:00,
2013-04-22 13:41:00,54.0,33.7,30.44,NNE,30,9.0,12.0,46,0.00,,,0.00,Wunderground v.1.15,2013-04-22 17:41:00,
2013-04-22 13:42:00,54.1,33.8,30.44,North,359,5.0,12.0,46,0.00,,,0.00,Wunderground v.1.15,2013-04-22 17:42:00,
2013-04-22 13:45:00,54.0,32.6,30.44,WNW,299,10.0,12.0,44,0.00,,,0.00,Wunderground v.1.15,2013-04-22 17:45:00,
2013-04-22 13:46:00,53.9,32.5,30.44,WNW,295,5.0,12.0,44,0.00,,,0.00,Wunderground v.1.15,2013-04-22 17:46:00,
2013-04-22 13:47:00,53.9,32.5,30.44,NW,316,3.0,12.0,44,0.00,,,0.00,Wunderground v.1.15,2013-04-22 17:47:00,
2013-04-22 13:50:00,54.1,34.3,30.44,NNE,26,9.0,11.0,47,0.00,,,0.00,Wunderground v.1.15,2013-04-22 17:50:00,
2013-04-22 13:51:00,54.1,33.2,30.43,NNE,30,2.0,11.0,45,0.00,,,0.00,Wunderground v.1.15,2013-04-22 17:51:00,
2013-04-22 13:52:00,54.1,33.2,30.43,North,359,3.0,11.0,45,0.00,,,0.00,Wunderground v.1.15,2013-04-22 17:52:00,
2013-04-22 13:55:00,54.5,34.1,30.43,NNW,345,8.0,11.0,46,0.00,,,0.00,Wunderground v.1.15,2013-04-22 17:55:00,
2013-04-22 13:57:00,54.4,33.5,30.43,NNE,30,9.0,11.0,45,0.00,,,0.00,Wunderground v.1.15,2013-04-22 17:57:00,
2013-04-22 13:58:00,54.4,34.0,30.43,North,349,8.0,11.0,46,0.00,,,0.00,Wunderground v.1.15,2013-04-22 17:58:00,
2013-04-22 14:00:00,54.5,33.6,30.43,North,356,6.0,12.0,45,0.00,,,0.00,Wunderground v.1.15,2013-04-22 18:00:00,
2013-04-22 14:01:00,54.6,33.7,30.43,NE,35,6.0,12.0,45,0.00,,,0.00,Wunderground v.1.15,2013-04-22 18:01:00,
2013-04-22 14:02:00,54.6,34.2,30.43,NW,307,7.0,12.0,46,0.00,,,0.00,Wunderground v.1.15,2013-04-22 18:02:00,
2013-04-22 14:04:00,54.6,33.1,30.43,NNE,13,5.0,14.0,44,0.00,,,0.00,Wunderground v.1.15,2013-04-22 18:04:00,
2013-04-22 14:05:00,54.5,34.7,30.43,NNW,329,4.0,14.0,47,0.00,,,0.00,Wunderground v.1.15,2013-04-22 18:05:00,
2013-04-22 14:07:00,54.6,34.2,30.43,North,356,13.0,14.0,46,0.00,,,0.00,Wunderground v.1.15,2013-04-22 18:07:00,
2013-04-22 14:09:00,54.6,32.5,30.43,NNE,18,6.0,14.0,43,0.00,,,0.00,Wunderground v.1.15,2013-04-22 18:09:00,
2013-04-22 14:11:00,54.9,35.6,30.42,NNE,18,9.0,11.0,48,0.00,,,0.00,Wunderground v.1.15,2013-04-22 18:11:00,
2013-04-22 14:12:00,54.9,35.6,30.42,NNE,29,6.0,11.0,48,0.00,,,0.00,Wunderground v.1.15,2013-04-22 18:12:00,
2013-04-22 14:13:00,55.0,35.7,30.42,NNE,33,8.0,11.0,48,0.00,,,0.00,Wunderground v.1.15,2013-04-22 18:13:00,
2013-04-22 14:14:00,55.4,34.9,30.42,NE,35,10.0,12.0,46,0.00,,,0.00,Wunderground v.1.15,2013-04-22 18:14:00,
2013-04-22 14:17:00,55.5,36.6,30.42,NNW,336,10.0,12.0,49,0.00,,,0.00,Wunderground v.1.15,2013-04-22 18:17:00,
2013-04-22 14:18:00,55.4,35.5,30.42,NE,53,7.0,12.0,47,0.00,,,0.00,Wunderground v.1.15,2013-04-22 18:18:00,
2013-04-22 14:20:00,55.2,34.2,30.42,NW,315,4.0,8.0,45,0.00,,,0.00,Wunderground v.1.15,2013-04-22 18:20:00,
2013-04-22 14:22:00,55.2,34.8,30.42,NW,311,3.0,9.0,46,0.00,,,0.00,Wunderground v.1.15,2013-04-22 18:22:00,
2013-04-22 14:23:00,55.1,35.2,30.42,North,356,4.0,9.0,47,0.00,,,0.00,Wunderground v.1.15,2013-04-22 18:23:00,
2013-04-22 14:24:00,55.1,35.7,30.42,NNW,330,7.0,9.0,48,0.00,,,0.00,Wunderground v.1.15,2013-04-22 18:24:00,
2013-04-22 14:26:00,55.0,34.6,30.42,NW,319,5.0,9.0,46,0.00,,,0.00,Wunderground v.1.15,2013-04-22 18:26:00,
2013-04-22 14:27:00,55.0,36.2,30.42,North,1,5.0,9.0,49,0.00,,,0.00,Wunderground v.1.15,2013-04-22 18:27:00,
2013-04-22 14:28:00,55.0,35.1,30.42,NW,321,1.0,9.0,47,0.00,,,0.00,Wunderground v.1.15,2013-04-22 18:28:00,
2013-04-22 14:29:00,55.0,35.7,30.42,WNW,290,2.0,9.0,48,0.00,,,0.00,Wunderground v.1.15,2013-04-22 18:29:00,
2013-04-22 14:30:00,55.2,35.8,30.42,NNE,27,4.0,5.0,48,0.00,,,0.00,Wunderground v.1.15,2013-04-22 18:30:00,
2013-04-22 14:31:00,55.3,35.9,30.42,NNE,33,6.0,10.0,48,0.00,,,0.00,Wunderground v.1.15,2013-04-22 18:31:00,
2013-04-22 14:32:00,55.3,35.9,30.42,NW,311,7.0,10.0,48,0.00,,,0.00,Wunderground v.1.15,2013-04-22 18:32:00,
2013-04-22 14:34:00,55.3,35.9,30.42,NW,323,4.0,10.0,48,0.00,,,0.00,Wunderground v.1.15,2013-04-22 18:34:00,
2013-04-22 14:35:00,55.4,36.5,30.42,NNW,332,4.0,10.0,49,0.00,,,0.00,Wunderground v.1.15,2013-04-22 18:35:00,
2013-04-22 14:37:00,55.5,36.1,30.42,NW,310,5.0,10.0,48,0.00,,,0.00,Wunderground v.1.15,2013-04-22 18:37:00,
2013-04-22 14:39:00,55.7,36.8,30.41,WNW,295,5.0,10.0,49,0.00,,,0.00,Wunderground v.1.15,2013-04-22 18:39:00,
2013-04-22 14:41:00,55.8,37.9,30.41,NNW,330,2.0,6.0,51,0.00,,,0.00,Wunderground v.1.15,2013-04-22 18:41:00,
2013-04-22 14:42:00,56.1,38.2,30.41,NW,307,5.0,9.0,51,0.00,,,0.00,Wunderground v.1.15,2013-04-22 18:42:00,
2013-04-22 14:43:00,56.1,36.7,30.41,WNW,293,3.0,9.0,48,0.00,,,0.00,Wunderground v.1.15,2013-04-22 18:43:00,
2013-04-22 14:44:00,56.2,38.8,30.41,North,354,6.0,9.0,52,0.00,,,0.00,Wunderground v.1.15,2013-04-22 18:44:00,
2013-04-22 14:45:00,56.4,39.0,30.41,NW,326,7.0,9.0,52,0.00,,,0.00,Wunderground v.1.15,2013-04-22 18:45:00,
2013-04-22 14:46:00,56.5,37.0,30.41,NNW,329,2.0,9.0,48,0.00,,,0.00,Wunderground v.1.15,2013-04-22 18:46:00,
2013-04-22 14:48:00,56.5,36.5,30.41,NW,304,2.0,9.0,47,0.00,,,0.00,Wunderground v.1.15,2013-04-22 18:48:00,
2013-04-22 14:49:00,56.5,37.6,30.41,NW,315,8.0,9.0,49,0.00,,,0.00,Wunderground v.1.15,2013-04-22 18:49:00,
2013-04-22 14:50:00,56.4,36.4,30.41,NW,325,6.0,6.0,47,0.00,,,0.00,Wunderground v.1.15,2013-04-22 18:50:00,
2013-04-22 14:51:00,56.3,36.3,30.40,NNE,29,8.0,8.0,47,0.00,,,0.00,Wunderground v.1.15,2013-04-22 18:51:00,
2013-04-22 14:53:00,56.2,35.7,30.40,North,6,6.0,14.0,46,0.00,,,0.00,Wunderground v.1.15,2013-04-22 18:53:00,
2013-04-22 14:54:00,56.2,35.7,30.40,North,360,10.0,14.0,46,0.00,,,0.00,Wunderground v.1.15,2013-04-22 18:54:00,
2013-04-22 14:55:00,56.1,35.6,30.40,NNE,25,5.0,14.0,46,0.00,,,0.00,Wunderground v.1.15,2013-04-22 18:55:00,
2013-04-22 14:56:00,56.1,35.6,30.40,North,356,6.0,14.0,46,0.00,,,0.00,Wunderground v.1.15,2013-04-22 18:56:00,
2013-04-22 14:58:00,55.8,35.3,30.40,NW,309,6.0,14.0,46,0.00,,,0.00,Wunderground v.1.15,2013-04-22 18:58:00,
2013-04-22 14:59:00,55.8,35.9,30.40,NNE,16,3.0,14.0,47,0.00,,,0.00,Wunderground v.1.15,2013-04-22 18:59:00,
2013-04-22 15:00:00,56.0,34.9,30.40,NE,37,6.0,9.0,45,0.00,,,0.00,Wunderground v.1.15,2013-04-22 19:00:00,
2013-04-22 15:01:00,56.0,34.9,30.40,NE,56,4.0,9.0,45,0.00,,,0.00,Wunderground v.1.15,2013-04-22 19:01:00,
2013-04-22 15:02:00,55.9,34.8,30.40,NNE,13,6.0,9.0,45,0.00,,,0.00,Wunderground v.1.15,2013-04-22 19:02:00,
2013-04-22 15:03:00,56.1,37.2,30.40,North,354,4.0,11.0,49,0.00,,,0.00,Wunderground v.1.15,2013-04-22 19:03:00,
2013-04-22 15:04:00,56.2,36.8,30.40,North,355,7.0,11.0,48,0.00,,,0.00,Wunderground v.1.15,2013-04-22 19:04:00,
2013-04-22 15:06:00,56.3,36.8,30.40,NNW,344,13.0,14.0,48,0.00,,,0.00,Wunderground v.1.15,2013-04-22 19:06:00,
2013-04-22 15:07:00,56.2,35.7,30.40,North,1,8.0,14.0,46,0.00,,,0.00,Wunderground v.1.15,2013-04-22 19:07:00,
2013-04-22 15:09:00,56.0,36.0,30.40,NW,321,6.0,14.0,47,0.00,,,0.00,Wunderground v.1.15,2013-04-22 19:09:00,
2013-04-22 15:11:00,56.0,36.0,30.40,NNW,336,4.0,7.0,47,0.00,,,0.00,Wunderground v.1.15,2013-04-22 19:11:00,
2013-04-22 15:12:00,56.2,36.2,30.39,NE,34,8.0,8.0,47,0.00,,,0.00,Wunderground v.1.15,2013-04-22 19:12:00,
2013-04-22 15:15:00,56.6,38.2,30.39,ENE,57,9.0,10.0,50,0.00,,,0.00,Wunderground v.1.15,2013-04-22 19:15:00,
2013-04-22 15:16:00,56.7,27.1,30.39,NNE,33,6.0,10.0,32,0.00,,,0.00,Wunderground v.1.15,2013-04-22 19:16:00,
2013-04-22 15:17:00,56.8,27.2,30.39,NE,41,5.0,10.0,32,0.00,,,0.00,Wunderground v.1.15,2013-04-22 19:17:00,
2013-04-22 15:18:00,56.9,27.3,30.39,NNE,22,12.0,12.0,32,0.00,,,0.00,Wunderground v.1.15,2013-04-22 19:18:00,
2013-04-22 15:21:00,56.7,36.1,30.39,NE,34,11.0,11.0,46,0.00,,,0.00,Wunderground v.1.15,2013-04-22 19:21:00,
2013-04-22 15:22:00,56.5,36.0,30.39,NNE,20,5.0,13.0,46,0.00,,,0.00,Wunderground v.1.15,2013-04-22 19:22:00,
2013-04-22 15:23:00,56.4,35.9,30.39,North,360,5.0,13.0,46,0.00,,,0.00,Wunderground v.1.15,2013-04-22 19:23:00,
2013-04-22 15:26:00,56.1,35.0,30.38,WSW,253,7.0,13.0,45,0.00,,,0.00,Wunderground v.1.15,2013-04-22 19:26:00,
2013-04-22 15:27:00,56.2,36.8,30.38,West,277,8.0,13.0,48,0.00,,,0.00,Wunderground v.1.15,2013-04-22 19:27:00,
2013-04-22 15:28:00,56.4,36.9,30.37,NE,50,14.0,14.0,48,0.00,,,0.00,Wunderground v.1.15,2013-04-22 19:28:00,
2013-04-22 15:31:00,56.6,34.3,30.38,NE,56,7.0,10.0,43,0.00,,,0.00,Wunderground v.1.15,2013-04-22 19:31:00,
2013-04-22 15:32:00,56.6,34.3,30.38,NE,46,6.0,10.0,43,0.00,,,0.00,Wunderground v.1.15,2013-04-22 19:32:00,
2013-04-22 15:33:00,56.6,34.9,30.38,NE,50,2.0,10.0,44,0.00,,,0.00,Wunderground v.1.15,2013-04-22 19:33:00,
2013-04-22 15:37:00,57.1,30.4,30.38,NNE,33,4.0,10.0,36,0.00,,,0.00,Wunderground v.1.15,2013-04-22 19:37:00,
2013-04-22 15:38:00,57.2,30.5,30.38,NE,51,2.0,10.0,36,0.00,,,0.00,Wunderground v.1.15,2013-04-22 19:38:00,
2013-04-22 15:42:00,57.6,27.2,30.38,ENE,70,5.0,5.0,31,0.00,,,0.00,Wunderground v.1.15,2013-04-22 19:42:00,
2013-04-22 15:43:00,57.8,29.6,30.38,East,97,3.0,5.0,34,0.00,,,0.00,Wunderground v.1.15,2013-04-22 19:43:00,
2013-04-22 15:44:00,57.9,31.1,30.38,North,11,6.0,8.0,36,0.00,,,0.00,Wunderground v.1.15,2013-04-22 19:44:00,
2013-04-22 15:47:00,57.6,34.1,30.38,NNW,338,3.0,9.0,41,0.00,,,0.00,Wunderground v.1.15,2013-04-22 19:47:00,
2013-04-22 15:49:00,57.2,32.4,30.37,SE,124,3.0,9.0,39,0.00,,,0.00,Wunderground v.1.15,2013-04-22 19:49:00,
2013-04-22 15:52:00,57.0,34.1,30.37,East,86,3.0,10.0,42,0.00,,,0.00,Wunderground v.1.15,2013-04-22 19:52:00,
2013-04-22 15:53:00,57.0,34.1,30.37,East,82,2.0,10.0,42,0.00,,,0.00,Wunderground v.1.15,2013-04-22 19:53:00,
2013-04-22 15:54:00,57.2,33.7,30.37,ENE,70,6.0,10.0,41,0.00,,,0.00,Wunderground v.1.15,2013-04-22 19:54:00,
2013-04-22 15:58:00,57.5,30.7,30.37,ENE,58,3.0,10.0,36,0.00,,,0.00,Wunderground v.1.15,2013-04-22 19:58:00,
2013-04-22 15:59:00,57.5,31.4,30.37,ENE,61,5.0,5.0,37,0.00,,,0.00,Wunderground v.1.15,2013-04-22 19:59:00,
2013-04-22 16:04:00,57.3,35.6,30.37,North,353,5.0,7.0,44,0.00,,,0.00,Wunderground v.1.15,2013-04-22 20:04:00,
2013-04-22 16:05:00,57.3,35.6,30.37,NE,53,1.0,7.0,44,0.00,,,0.00,Wunderground v.1.15,2013-04-22 20:05:00,
2013-04-22 16:09:00,57.3,35.0,30.36,East,91,7.0,7.0,43,0.00,,,0.00,Wunderground v.1.15,2013-04-22 20:09:00,
2013-04-22 16:10:00,57.2,34.9,30.36,East,82,2.0,6.0,43,0.00,,,0.00,Wunderground v.1.15,2013-04-22 20:10:00,
2013-04-22 16:14:00,57.6,34.7,30.36,ENE,58,7.0,8.0,42,0.00,,,0.00,Wunderground v.1.15,2013-04-22 20:14:00,
2013-04-22 16:15:00,57.6,34.7,30.36,NNE,30,8.0,9.0,42,0.00,,,0.00,Wunderground v.1.15,2013-04-22 20:15:00,
2013-04-22 16:20:00,57.7,30.9,30.36,ENE,70,10.0,10.0,36,0.00,,,0.00,Wunderground v.1.15,2013-04-22 20:20:00,
2013-04-22 16:21:00,57.6,30.1,30.36,NE,54,7.0,10.0,35,0.00,,,0.00,Wunderground v.1.15,2013-04-22 20:21:00,
2013-04-22 16:25:00,57.4,31.3,30.36,East,84,2.0,10.0,37,0.00,,,0.00,Wunderground v.1.15,2013-04-22 20:25:00,
2013-04-22 16:26:00,57.4,30.6,30.36,ENE,75,6.0,10.0,36,0.00,,,0.00,Wunderground v.1.15,2013-04-22 20:26:00,
2013-04-22 16:30:00,58.0,33.8,30.35,NE,44,4.0,10.0,40,0.00,,,0.00,Wunderground v.1.15,2013-04-22 20:30:00,
2013-04-22 16:31:00,58.0,33.8,30.36,NNE,33,4.0,10.0,40,0.00,,,0.00,Wunderground v.1.15,2013-04-22 20:31:00,
2013-04-22 16:32:00,57.9,31.1,30.35,ENE,58,4.0,10.0,36,0.00,,,0.00,Wunderground v.1.15,2013-04-22 20:32:00,
2013-04-22 16:35:00,57.9,31.1,30.35,NNE,30,4.0,10.0,36,0.00,,,0.00,Wunderground v.1.15,2013-04-22 20:35:00,
2013-04-22 16:36:00,57.8,31.0,30.35,ENE,58,2.0,10.0,36,0.00,,,0.00,Wunderground v.1.15,2013-04-22 20:36:00,
2013-04-22 16:37:00,57.8,31.0,30.36,NE,55,6.0,10.0,36,0.00,,,0.00,Wunderground v.1.15,2013-04-22 20:37:00,
2013-04-22 16:40:00,58.0,31.2,30.35,ESE,108,3.0,6.0,36,0.00,,,0.00,Wunderground v.1.15,2013-04-22 20:40:00,
2013-04-22 16:41:00,58.0,32.5,30.35,NE,44,5.0,6.0,38,0.00,,,0.00,Wunderground v.1.15,2013-04-22 20:41:00,
2013-04-22 16:42:00,58.1,32.6,30.35,ENE,68,4.0,6.0,38,0.00,,,0.00,Wunderground v.1.15,2013-04-22 20:42:00,
2013-04-22 16:43:00,58.1,32.6,30.35,ENE,58,4.0,8.0,38,0.00,,,0.00,Wunderground v.1.15,2013-04-22 20:43:00,
2013-04-22 16:46:00,58.0,32.5,30.35,East,82,7.0,9.0,38,0.00,,,0.00,Wunderground v.1.15,2013-04-22 20:46:00,
2013-04-22 16:47:00,58.1,31.9,30.35,NE,50,8.0,10.0,37,0.00,,,0.00,Wunderground v.1.15,2013-04-22 20:47:00,
2013-04-22 16:49:00,58.0,33.2,30.35,SE,140,2.0,10.0,39,0.00,,,0.00,Wunderground v.1.15,2013-04-22 20:49:00,
2013-04-22 16:51:00,58.1,31.9,30.35,ESE,118,8.0,10.0,37,0.00,,,0.00,Wunderground v.1.15,2013-04-22 20:51:00,
2013-04-22 16:52:00,58.1,30.6,30.35,ESE,110,7.0,10.0,35,0.00,,,0.00,Wunderground v.1.15,2013-04-22 20:52:00,
2013-04-22 16:54:00,58.0,29.8,30.35,ESE,114,4.0,10.0,34,0.00,,,0.00,Wunderground v.1.15,2013-04-22 20:54:00,
2013-04-22 16:56:00,58.0,29.8,30.35,SE,131,5.0,10.0,34,0.00,,,0.00,Wunderground v.1.15,2013-04-22 20:56:00,
2013-04-22 16:57:00,58.0,30.5,30.35,ENE,75,5.0,10.0,35,0.00,,,0.00,Wunderground v.1.15,2013-04-22 20:57:00,
2013-04-22 16:58:00,58.0,30.5,30.35,NE,53,2.0,10.0,35,0.00,,,0.00,Wunderground v.1.15,2013-04-22 20:58:00,
2013-04-22 16:59:00,58.1,31.3,30.35,NE,53,6.0,10.0,36,0.00,,,0.00,Wunderground v.1.15,2013-04-22 20:59:00,
2013-04-22 17:01:00,58.3,31.4,30.35,ENE,63,7.0,12.0,36,0.00,,,0.00,Wunderground v.1.15,2013-04-22 21:01:00,
2013-04-22 17:02:00,58.2,31.3,30.35,ENE,68,5.0,12.0,36,0.00,,,0.00,Wunderground v.1.15,2013-04-22 21:02:00,
2013-04-22 17:03:00,58.1,31.9,30.35,ENE,68,6.0,12.0,37,0.00,,,0.00,Wunderground v.1.15,2013-04-22 21:03:00,
2013-04-22 17:04:00,58.0,31.2,30.35,ENE,65,5.0,12.0,36,0.00,,,0.00,Wunderground v.1.15,2013-04-22 21:04:00,
2013-04-22 17:06:00,57.9,33.1,30.35,East,85,4.0,12.0,39,0.00,,,0.00,Wunderground v.1.15,2013-04-22 21:06:00,
2013-04-22 17:08:00,58.0,33.2,30.35,South,173,2.0,12.0,39,0.00,,,0.00,Wunderground v.1.15,2013-04-22 21:08:00,
2013-04-22 17:09:00,58.0,31.8,30.35,East,100,4.0,12.0,37,0.00,,,0.00,Wunderground v.1.15,2013-04-22 21:09:00,
2013-04-22 17:10:00,58.0,31.8,30.35,East,99,7.0,7.0,37,0.00,,,0.00,Wunderground v.1.15,2013-04-22 21:10:00,
2013-04-22 17:11:00,58.0,31.8,30.35,East,98,6.0,12.0,37,0.00,,,0.00,Wunderground v.1.15,2013-04-22 21:11:00,
2013-04-22 17:13:00,58.1,33.2,30.35,ESE,117,6.0,12.0,39,0.00,,,0.00,Wunderground v.1.15,2013-04-22 21:13:00,
2013-04-22 17:14:00,58.1,31.9,30.35,ESE,117,10.0,12.0,37,0.00,,,0.00,Wunderground v.1.15,2013-04-22 21:14:00,
2013-04-22 17:15:00,58.1,33.2,30.35,ESE,121,5.0,12.0,39,0.00,,,0.00,Wunderground v.1.15,2013-04-22 21:15:00,
2013-04-22 17:17:00,58.1,33.2,30.35,ENE,63,7.0,12.0,39,0.00,,,0.00,Wunderground v.1.15,2013-04-22 21:17:00,
2013-04-22 17:18:00,58.1,32.6,30.35,ENE,74,5.0,12.0,38,0.00,,,0.00,Wunderground v.1.15,2013-04-22 21:18:00,
2013-04-22 17:19:00,58.0,31.8,30.35,NE,55,7.0,12.0,37,0.00,,,0.00,Wunderground v.1.15,2013-04-22 21:19:00,
2013-04-22 17:20:00,57.9,31.8,30.35,ENE,61,6.0,7.0,37,0.00,,,0.00,Wunderground v.1.15,2013-04-22 21:20:00,
2013-04-22 17:23:00,57.6,30.8,30.35,ESE,117,11.0,11.0,36,0.00,,,0.00,Wunderground v.1.15,2013-04-22 21:23:00,
2013-04-22 17:24:00,57.5,31.4,30.35,ENE,75,8.0,11.0,37,0.00,,,0.00,Wunderground v.1.15,2013-04-22 21:24:00,
2013-04-22 17:25:00,57.5,32.1,30.35,ESE,105,3.0,11.0,38,0.00,,,0.00,Wunderground v.1.15,2013-04-22 21:25:00,
2013-04-22 17:26:00,57.5,31.4,30.35,East,92,8.0,11.0,37,0.00,,,0.00,Wunderground v.1.15,2013-04-22 21:26:00,
2013-04-22 17:28:00,57.4,29.9,30.35,ENE,72,3.0,11.0,35,0.00,,,0.00,Wunderground v.1.15,2013-04-22 21:28:00,
2013-04-22 17:29:00,57.4,30.6,30.35,ENE,64,4.0,11.0,36,0.00,,,0.00,Wunderground v.1.15,2013-04-22 21:29:00,
2013-04-22 17:30:00,57.5,32.1,30.35,ENE,61,6.0,9.0,38,0.00,,,0.00,Wunderground v.1.15,2013-04-22 21:30:00,
2013-04-22 17:31:00,57.5,32.1,30.35,ENE,62,7.0,9.0,38,0.00,,,0.00,Wunderground v.1.15,2013-04-22 21:31:00,
2013-04-22 17:33:00,57.5,34.0,30.35,East,81,6.0,9.0,41,0.00,,,0.00,Wunderground v.1.15,2013-04-22 21:33:00,
2013-04-22 17:34:00,57.5,32.7,30.35,NE,50,6.0,9.0,39,0.00,,,0.00,Wunderground v.1.15,2013-04-22 21:34:00,
2013-04-22 17:35:00,57.5,32.7,30.35,ENE,74,10.0,14.0,39,0.00,,,0.00,Wunderground v.1.15,2013-04-22 21:35:00,
2013-04-22 17:36:00,57.4,33.3,30.35,NE,50,7.0,14.0,40,0.00,,,0.00,Wunderground v.1.15,2013-04-22 21:36:00,
2013-04-22 17:39:00,57.3,33.2,30.35,East,81,8.0,14.0,40,0.00,,,0.00,Wunderground v.1.15,2013-04-22 21:39:00,
2013-04-22 17:40:00,57.2,33.1,30.35,NE,46,5.0,9.0,40,0.00,,,0.00,Wunderground v.1.15,2013-04-22 21:40:00,
2013-04-22 17:42:00,57.2,31.1,30.35,ENE,70,5.0,9.0,37,0.00,,,0.00,Wunderground v.1.15,2013-04-22 21:42:00,
2013-04-22 17:44:00,57.1,32.4,30.35,ENE,60,4.0,9.0,39,0.00,,,0.00,Wunderground v.1.15,2013-04-22 21:44:00,
2013-04-22 17:45:00,57.2,32.4,30.35,ENE,60,6.0,9.0,39,0.00,,,0.00,Wunderground v.1.15,2013-04-22 21:45:00,
2013-04-22 17:48:00,57.4,32.6,30.35,ESE,104,6.0,10.0,39,0.00,,,0.00,Wunderground v.1.15,2013-04-22 21:48:00,
2013-04-22 17:49:00,57.5,33.3,30.35,NE,49,6.0,10.0,40,0.00,,,0.00,Wunderground v.1.15,2013-04-22 21:49:00,
2013-04-22 17:50:00,57.5,34.0,30.35,ENE,71,5.0,8.0,41,0.00,,,0.00,Wunderground v.1.15,2013-04-22 21:50:00,
2013-04-22 17:51:00,57.5,34.0,30.35,ENE,59,4.0,8.0,41,0.00,,,0.00,Wunderground v.1.15,2013-04-22 21:51:00,
2013-04-22 17:54:00,57.4,33.3,30.35,NE,44,3.0,8.0,40,0.00,,,0.00,Wunderground v.1.15,2013-04-22 21:54:00,
2013-04-22 17:56:00,57.4,33.9,30.35,ESE,109,3.0,8.0,41,0.00,,,0.00,Wunderground v.1.15,2013-04-22 21:56:00,
2013-04-22 17:57:00,57.5,33.3,30.35,East,100,6.0,8.0,40,0.00,,,0.00,Wunderground v.1.15,2013-04-22 21:57:00,
2013-04-22 17:59:00,57.6,32.2,30.35,East,84,6.0,9.0,38,0.00,,,0.00,Wunderground v.1.15,2013-04-22 21:59:00,
2013-04-22 18:02:00,57.6,32.2,30.35,ENE,60,3.0,8.0,38,0.00,,,0.00,Wunderground v.1.15,2013-04-22 22:02:00,
2013-04-22 18:04:00,57.6,32.2,30.35,ENE,65,6.0,8.0,38,0.00,,,0.00,Wunderground v.1.15,2013-04-22 22:04:00,
2013-04-22 18:05:00,57.5,33.3,30.35,ESE,112,4.0,8.0,40,0.00,,,0.00,Wunderground v.1.15,2013-04-22 22:05:00,
2013-04-22 18:07:00,57.5,32.1,30.35,ENE,72,5.0,8.0,38,0.00,,,0.00,Wunderground v.1.15,2013-04-22 22:07:00,
2013-04-22 18:09:00,57.4,33.3,30.35,ENE,74,4.0,8.0,40,0.00,,,0.00,Wunderground v.1.15,2013-04-22 22:09:00,
2013-04-22 18:10:00,57.3,34.4,30.35,ENE,65,5.0,5.0,42,0.00,,,0.00,Wunderground v.1.15,2013-04-22 22:10:00,
2013-04-22 18:12:00,57.4,34.5,30.35,NE,51,5.0,7.0,42,0.00,,,0.00,Wunderground v.1.15,2013-04-22 22:12:00,
2013-04-22 18:13:00,57.3,32.5,30.35,ENE,57,7.0,12.0,39,0.00,,,0.00,Wunderground v.1.15,2013-04-22 22:13:00,
2013-04-22 18:15:00,57.2,33.1,30.35,ENE,67,7.0,12.0,40,0.00,,,0.00,Wunderground v.1.15,2013-04-22 22:15:00,
2013-04-22 18:16:00,57.1,33.0,30.34,ENE,57,7.0,12.0,40,0.00,,,0.00,Wunderground v.1.15,2013-04-22 22:16:00,
2013-04-22 18:17:00,57.0,32.3,30.35,NE,50,5.0,12.0,39,0.00,,,0.00,Wunderground v.1.15,2013-04-22 22:17:00,
2013-04-22 18:19:00,57.0,32.9,30.35,ENE,74,7.0,12.0,40,0.00,,,0.00,Wunderground v.1.15,2013-04-22 22:19:00,
2013-04-22 18:20:00,56.9,32.8,30.35,ENE,65,6.0,8.0,40,0.00,,,0.00,Wunderground v.1.15,2013-04-22 22:20:00,
2013-04-22 18:21:00,56.8,32.7,30.35,ENE,58,5.0,8.0,40,0.00,,,0.00,Wunderground v.1.15,2013-04-22 22:21:00,
2013-04-22 18:22:00,56.9,33.4,30.35,ENE,69,3.0,8.0,41,0.00,,,0.00,Wunderground v.1.15,2013-04-22 22:22:00,
2013-04-22 18:23:00,56.9,34.0,30.35,ENE,65,7.0,8.0,42,0.00,,,0.00,Wunderground v.1.15,2013-04-22 22:23:00,
2013-04-22 18:24:00,56.9,34.0,30.35,East,89,5.0,9.0,42,0.00,,,0.00,Wunderground v.1.15,2013-04-22 22:24:00,
2013-04-22 18:25:00,56.9,34.0,30.35,East,82,1.0,9.0,42,0.00,,,0.00,Wunderground v.1.15,2013-04-22 22:25:00,
2013-04-22 18:27:00,56.9,33.4,30.35,ENE,63,7.0,10.0,41,0.00,,,0.00,Wunderground v.1.15,2013-04-22 22:27:00,
2013-04-22 18:28:00,56.9,33.4,30.34,ENE,73,7.0,10.0,41,0.00,,,0.00,Wunderground v.1.15,2013-04-22 22:28:00,
2013-04-22 18:30:00,56.7,33.2,30.34,ENE,63,6.0,8.0,41,0.00,,,0.00,Wunderground v.1.15,2013-04-22 22:30:00,
2013-04-22 18:31:00,56.7,33.2,30.35,ENE,63,6.0,8.0,41,0.00,,,0.00,Wunderground v.1.15,2013-04-22 22:31:00,
2013-04-22 18:32:00,56.7,33.2,30.34,NE,50,4.0,8.0,41,0.00,,,0.00,Wunderground v.1.15,2013-04-22 22:32:00,
2013-04-22 18:33:00,56.7,33.2,30.35,East,100,3.0,8.0,41,0.00,,,0.00,Wunderground v.1.15,2013-04-22 22:33:00,
2013-04-22 18:36:00,56.7,33.8,30.35,East,80,9.0,9.0,42,0.00,,,0.00,Wunderground v.1.15,2013-04-22 22:36:00,
2013-04-22 18:37:00,56.7,33.8,30.35,ENE,57,8.0,9.0,42,0.00,,,0.00,Wunderground v.1.15,2013-04-22 22:37:00,
2013-04-22 18:39:00,56.5,33.7,30.34,NE,47,9.0,11.0,42,0.00,,,0.00,Wunderground v.1.15,2013-04-22 22:39:00,
2013-04-22 18:41:00,56.3,33.5,30.35,NE,56,3.0,11.0,42,0.00,,,0.00,Wunderground v.1.15,2013-04-22 22:41:00,
2013-04-22 18:43:00,56.3,34.1,30.35,ENE,61,9.0,11.0,43,0.00,,,0.00,Wunderground v.1.15,2013-04-22 22:43:00,
2013-04-22 18:44:00,56.3,34.6,30.35,ENE,77,3.0,11.0,44,0.00,,,0.00,Wunderground v.1.15,2013-04-22 22:44:00,
2013-04-22 18:47:00,56.3,35.2,30.35,ENE,75,5.0,11.0,45,0.00,,,0.00,Wunderground v.1.15,2013-04-22 22:47:00,
2013-04-22 18:48:00,56.2,34.0,30.35,East,79,4.0,11.0,43,0.00,,,0.00,Wunderground v.1.15,2013-04-22 22:48:00,
2013-04-22 18:49:00,56.2,34.0,30.35,ESE,112,3.0,11.0,43,0.00,,,0.00,Wunderground v.1.15,2013-04-22 22:49:00,
2013-04-22 18:52:00,56.1,33.9,30.35,East,91,5.0,6.0,43,0.00,,,0.00,Wunderground v.1.15,2013-04-22 22:52:00,
2013-04-22 18:53:00,56.1,33.9,30.35,NE,53,5.0,6.0,43,0.00,,,0.00,Wunderground v.1.15,2013-04-22 22:53:00,
2013-04-22 18:54:00,56.0,33.8,30.35,ENE,74,3.0,6.0,43,0.00,,,0.00,Wunderground v.1.15,2013-04-22 22:54:00,
2013-04-22 18:55:00,56.0,34.4,30.35,ENE,76,8.0,8.0,44,0.00,,,0.00,Wunderground v.1.15,2013-04-22 22:55:00,
2013-04-22 18:57:00,55.9,34.3,30.35,ENE,60,6.0,8.0,44,0.00,,,0.00,Wunderground v.1.15,2013-04-22 22:57:00,
2013-04-22 18:58:00,55.8,34.2,30.35,NE,50,8.0,8.0,44,0.00,,,0.00,Wunderground v.1.15,2013-04-22 22:58:00,
2013-04-22 19:00:00,55.7,33.5,30.35,ENE,62,7.0,7.0,43,0.00,,,0.00,Wunderground v.1.15,2013-04-22 23:00:00,
2013-04-22 19:02:00,55.5,33.9,30.35,ENE,63,6.0,7.0,44,0.00,,,0.00,Wunderground v.1.15,2013-04-22 23:02:00,
2013-04-22 19:03:00,55.5,33.9,30.35,ENE,70,7.0,7.0,44,0.00,,,0.00,Wunderground v.1.15,2013-04-22 23:03:00,
2013-04-22 19:05:00,55.4,34.4,30.35,NE,48,4.0,9.0,45,0.00,,,0.00,Wunderground v.1.15,2013-04-22 23:05:00,
2013-04-22 19:07:00,55.2,34.8,30.35,ENE,60,4.0,9.0,46,0.00,,,0.00,Wunderground v.1.15,2013-04-22 23:07:00,
2013-04-22 19:09:00,55.1,34.7,30.35,ENE,68,2.0,9.0,46,0.00,,,0.00,Wunderground v.1.15,2013-04-22 23:09:00,
2013-04-22 19:10:00,55.0,34.0,30.35,SE,128,5.0,6.0,45,0.00,,,0.00,Wunderground v.1.15,2013-04-22 23:10:00,
2013-04-22 19:11:00,54.9,34.5,30.35,ENE,70,5.0,6.0,46,0.00,,,0.00,Wunderground v.1.15,2013-04-22 23:11:00,
2013-04-22 19:12:00,54.8,34.4,30.35,ENE,75,7.0,7.0,46,0.00,,,0.00,Wunderground v.1.15,2013-04-22 23:12:00,
2013-04-22 19:14:00,54.7,34.3,30.35,ENE,58,4.0,9.0,46,0.00,,,0.00,Wunderground v.1.15,2013-04-22 23:14:00,
2013-04-22 19:15:00,54.7,34.3,30.35,ENE,65,3.0,9.0,46,0.00,,,0.00,Wunderground v.1.15,2013-04-22 23:15:00,
2013-04-22 19:17:00,54.5,34.1,30.35,East,92,4.0,13.0,46,0.00,,,0.00,Wunderground v.1.15,2013-04-22 23:17:00,
2013-04-22 19:20:00,54.5,34.7,30.35,ENE,64,3.0,5.0,47,0.00,,,0.00,Wunderground v.1.15,2013-04-22 23:20:00,
2013-04-22 19:22:00,54.3,33.9,30.35,NE,54,6.0,7.0,46,0.00,,,0.00,Wunderground v.1.15,2013-04-22 23:22:00,
2013-04-22 19:23:00,54.3,33.9,30.35,ESE,115,4.0,8.0,46,0.00,,,0.00,Wunderground v.1.15,2013-04-22 23:23:00,
2013-04-22 19:25:00,54.1,34.3,30.35,NE,35,4.0,10.0,47,0.00,,,0.00,Wunderground v.1.15,2013-04-22 23:25:00,
2013-04-22 19:27:00,53.9,34.6,30.35,East,83,7.0,10.0,48,0.00,,,0.00,Wunderground v.1.15,2013-04-22 23:27:00,
2013-04-22 19:28:00,53.8,34.6,30.35,SE,126,5.0,10.0,48,0.00,,,0.00,Wunderground v.1.15,2013-04-22 23:28:00,
2013-04-22 19:30:00,53.6,34.9,30.35,East,95,6.0,7.0,49,0.00,,,0.00,Wunderground v.1.15,2013-04-22 23:30:00,
2013-04-22 19:31:00,53.5,34.8,30.35,NE,49,5.0,7.0,49,0.00,,,0.00,Wunderground v.1.15,2013-04-22 23:31:00,
2013-04-22 19:32:00,53.5,34.8,30.35,ENE,61,9.0,10.0,49,0.00,,,0.00,Wunderground v.1.15,2013-04-22 23:32:00,
2013-04-22 19:33:00,53.4,34.2,30.35,NE,56,10.0,12.0,48,0.00,,,0.00,Wunderground v.1.15,2013-04-22 23:33:00,
2013-04-22 19:35:00,53.2,34.5,30.35,ENE,75,7.0,12.0,49,0.00,,,0.00,Wunderground v.1.15,2013-04-22 23:35:00,
2013-04-22 19:37:00,53.1,34.4,30.35,ENE,67,5.0,12.0,49,0.00,,,0.00,Wunderground v.1.15,2013-04-22 23:37:00,
2013-04-22 19:38:00,53.0,34.3,30.35,NE,53,4.0,12.0,49,0.00,,,0.00,Wunderground v.1.15,2013-04-22 23:38:00,
2013-04-22 19:39:00,53.0,34.3,30.35,ENE,59,4.0,12.0,49,0.00,,,0.00,Wunderground v.1.15,2013-04-22 23:39:00,
2013-04-22 19:40:00,52.8,34.7,30.35,ENE,64,6.0,11.0,50,0.00,,,0.00,Wunderground v.1.15,2013-04-22 23:40:00,
2013-04-22 19:42:00,52.8,34.7,30.35,ENE,65,3.0,11.0,50,0.00,,,0.00,Wunderground v.1.15,2013-04-22 23:42:00,
2013-04-22 19:43:00,52.6,34.5,30.35,NE,53,4.0,11.0,50,0.00,,,0.00,Wunderground v.1.15,2013-04-22 23:43:00,
2013-04-22 19:44:00,52.6,34.5,30.35,NE,48,4.0,11.0,50,0.00,,,0.00,Wunderground v.1.15,2013-04-22 23:44:00,
2013-04-22 19:46:00,52.5,34.9,30.35,ENE,60,4.0,11.0,51,0.00,,,0.00,Wunderground v.1.15,2013-04-22 23:46:00,
2013-04-22 19:47:00,52.4,34.8,30.36,ENE,64,5.0,11.0,51,0.00,,,0.00,Wunderground v.1.15,2013-04-22 23:47:00,
2013-04-22 19:49:00,52.3,34.7,30.36,ENE,65,5.0,11.0,51,0.00,,,0.00,Wunderground v.1.15,2013-04-22 23:49:00,
2013-04-22 19:50:00,52.2,34.6,30.36,ENE,68,3.0,5.0,51,0.00,,,0.00,Wunderground v.1.15,2013-04-22 23:50:00,
2013-04-22 19:51:00,52.1,34.5,30.36,ENE,70,3.0,5.0,51,0.00,,,0.00,Wunderground v.1.15,2013-04-22 23:51:00,
2013-04-22 19:53:00,52.0,34.4,30.36,ENE,58,6.0,6.0,51,0.00,,,0.00,Wunderground v.1.15,2013-04-22 23:53:00,
2013-04-22 19:54:00,52.0,34.4,30.36,ENE,63,4.0,8.0,51,0.00,,,0.00,Wunderground v.1.15,2013-04-22 23:54:00,
2013-04-22 19:55:00,52.0,34.4,30.36,ENE,64,3.0,8.0,51,0.00,,,0.00,Wunderground v.1.15,2013-04-22 23:55:00,
2013-04-22 19:56:00,51.9,34.8,30.36,ENE,61,4.0,8.0,52,0.00,,,0.00,Wunderground v.1.15,2013-04-22 23:56:00,
2013-04-22 19:58:00,51.9,34.8,30.36,ENE,64,2.0,8.0,52,0.00,,,0.00,Wunderground v.1.15,2013-04-22 23:58:00,
2013-04-22 20:00:00,51.7,35.1,30.36,ENE,72,2.0,4.0,53,0.00,,,0.00,Wunderground v.1.15,2013-04-23 00:00:00,
2013-04-22 20:02:00,51.6,34.5,30.36,East,79,1.0,4.0,52,0.00,,,0.00,Wunderground v.1.15,2013-04-23 00:02:00,
2013-04-22 20:04:00,51.5,34.4,30.36,ENE,75,2.0,4.0,52,0.00,,,0.00,Wunderground v.1.15,2013-04-23 00:04:00,
2013-04-22 20:05:00,51.4,34.3,30.36,ENE,68,1.0,4.0,52,0.00,,,0.00,Wunderground v.1.15,2013-04-23 00:05:00,
2013-04-22 20:06:00,51.4,34.3,30.36,ENE,68,1.0,4.0,52,0.00,,,0.00,Wunderground v.1.15,2013-04-23 00:06:00,
2013-04-22 20:08:00,51.3,34.7,30.36,ENE,68,1.0,4.0,53,0.00,,,0.00,Wunderground v.1.15,2013-04-23 00:08:00,
2013-04-22 20:09:00,51.2,34.6,30.36,ENE,65,1.0,2.0,53,0.00,,,0.00,Wunderground v.1.15,2013-04-23 00:09:00,
2013-04-22 20:10:00,51.2,34.6,30.36,ESE,103,1.0,2.0,53,0.00,,,0.00,Wunderground v.1.15,2013-04-23 00:10:00,
2013-04-22 20:11:00,51.1,34.5,30.36,ESE,103,0.0,2.0,53,0.00,,,0.00,Wunderground v.1.15,2013-04-23 00:11:00,
2013-04-22 20:12:00,51.1,34.5,30.36,NNW,347,1.0,2.0,53,0.00,,,0.00,Wunderground v.1.15,2013-04-23 00:12:00,
2013-04-22 20:15:00,50.9,34.4,30.37,NNW,333,0.0,2.0,53,0.00,,,0.00,Wunderground v.1.15,2013-04-23 00:15:00,
2013-04-22 20:16:00,50.8,34.7,30.37,NNW,333,0.0,2.0,54,0.00,,,0.00,Wunderground v.1.15,2013-04-23 00:16:00,
2013-04-22 20:17:00,50.6,34.6,30.37,NE,35,1.0,2.0,54,0.00,,,0.00,Wunderground v.1.15,2013-04-23 00:17:00,
2013-04-22 20:20:00,50.5,34.5,30.37,SE,129,3.0,3.0,54,0.00,,,0.00,Wunderground v.1.15,2013-04-23 00:20:00,
2013-04-22 20:21:00,50.5,34.5,30.36,East,98,2.0,3.0,54,0.00,,,0.00,Wunderground v.1.15,2013-04-23 00:21:00,
2013-04-22 20:22:00,50.5,34.5,30.36,NNE,29,1.0,3.0,54,0.00,,,0.00,Wunderground v.1.15,2013-04-23 00:22:00,
2013-04-22 20:26:00,50.2,35.1,30.37,NW,315,2.0,3.0,56,0.00,,,0.00,Wunderground v.1.15,2013-04-23 00:26:00,
2013-04-22 20:27:00,50.0,34.5,30.37,North,8,0.0,3.0,55,0.00,,,0.00,Wunderground v.1.15,2013-04-23 00:27:00,
2013-04-22 20:31:00,49.7,35.1,30.37,North,11,2.0,3.0,57,0.00,,,0.00,Wunderground v.1.15,2013-04-23 00:31:00,
2013-04-22 20:32:00,49.6,35.0,30.37,NNE,13,2.0,3.0,57,0.00,,,0.00,Wunderground v.1.15,2013-04-23 00:32:00,
2013-04-22 20:33:00,49.6,35.0,30.37,North,11,2.0,3.0,57,0.00,,,0.00,Wunderground v.1.15,2013-04-23 00:33:00,
2013-04-22 20:36:00,49.5,34.9,30.37,North,352,2.0,4.0,57,0.00,,,0.00,Wunderground v.1.15,2013-04-23 00:36:00,
2013-04-22 20:37:00,49.5,34.9,30.37,NNE,25,2.0,4.0,57,0.00,,,0.00,Wunderground v.1.15,2013-04-23 00:37:00,
2013-04-22 20:38:00,49.5,34.9,30.37,NNE,23,3.0,4.0,57,0.00,,,0.00,Wunderground v.1.15,2013-04-23 00:38:00,
2013-04-22 20:41:00,49.5,34.9,30.37,NNW,347,2.0,5.0,57,0.00,,,0.00,Wunderground v.1.15,2013-04-23 00:41:00,
2013-04-22 20:43:00,49.6,34.5,30.37,NNE,15,1.0,5.0,56,0.00,,,0.00,Wunderground v.1.15,2013-04-23 00:43:00,
2013-04-22 20:46:00,49.6,34.5,30.37,West,281,1.0,5.0,56,0.00,,,0.00,Wunderground v.1.15,2013-04-23 00:46:00,
2013-04-22 20:48:00,49.5,34.9,30.37,NNE,33,2.0,5.0,57,0.00,,,0.00,Wunderground v.1.15,2013-04-23 00:48:00,
2013-04-22 20:49:00,49.5,34.9,30.37,North,359,3.0,5.0,57,0.00,,,0.00,Wunderground v.1.15,2013-04-23 00:49:00,
2013-04-22 20:52:00,49.1,34.9,30.37,NNE,27,4.0,4.0,58,0.00,,,0.00,Wunderground v.1.15,2013-04-23 00:52:00,
2013-04-22 20:53:00,49.1,34.9,30.38,NNE,33,1.0,4.0,58,0.00,,,0.00,Wunderground v.1.15,2013-04-23 00:53:00,
2013-04-22 20:54:00,49.0,34.9,30.37,NNE,13,1.0,4.0,58,0.00,,,0.00,Wunderground v.1.15,2013-04-23 00:54:00,
2013-04-22 20:58:00,48.9,35.2,30.37,NW,323,2.0,4.0,59,0.00,,,0.00,Wunderground v.1.15,2013-04-23 00:58:00,
2013-04-22 20:59:00,48.8,35.1,30.38,NNW,340,2.0,4.0,59,0.00,,,0.00,Wunderground v.1.15,2013-04-23 00:59:00,
2013-04-22 21:00:00,48.9,35.2,30.38,NNW,338,2.0,2.0,59,0.00,,,0.00,Wunderground v.1.15,2013-04-23 01:00:00,
2013-04-22 21:03:00,48.8,35.1,30.38,NNW,338,1.0,3.0,59,0.00,,,0.00,Wunderground v.1.15,2013-04-23 01:03:00,
2013-04-22 21:04:00,48.8,35.1,30.38,North,356,2.0,3.0,59,0.00,,,0.00,Wunderground v.1.15,2013-04-23 01:04:00,
2013-04-22 21:05:00,48.8,35.1,30.38,NW,321,1.0,3.0,59,0.00,,,0.00,Wunderground v.1.15,2013-04-23 01:05:00,
2013-04-22 21:08:00,48.7,35.0,30.38,North,357,1.0,3.0,59,0.00,,,0.00,Wunderground v.1.15,2013-04-23 01:08:00,
2013-04-22 21:09:00,48.7,35.0,30.38,North,357,1.0,3.0,59,0.00,,,0.00,Wunderground v.1.15,2013-04-23 01:09:00,
2013-04-22 21:10:00,48.7,35.0,30.38,North,354,0.0,2.0,59,0.00,,,0.00,Wunderground v.1.15,2013-04-23 01:10:00,
2013-04-22 21:14:00,48.6,34.9,30.38,WNW,288,0.0,2.0,59,0.00,,,0.00,Wunderground v.1.15,2013-04-23 01:14:00,
2013-04-22 21:15:00,48.5,35.2,30.38,WNW,300,0.0,2.0,60,0.00,,,0.00,Wunderground v.1.15,2013-04-23 01:15:00,
2013-04-22 21:19:00,48.3,35.0,30.38,NE,40,1.0,1.0,60,0.00,,,0.00,Wunderground v.1.15,2013-04-23 01:19:00,
2013-04-22 21:20:00,48.3,35.0,30.38,NE,39,1.0,1.0,60,0.00,,,0.00,Wunderground v.1.15,2013-04-23 01:20:00,
2013-04-22 21:24:00,48.2,35.0,30.39,North,7,2.0,5.0,60,0.00,,,0.00,Wunderground v.1.15,2013-04-23 01:24:00,
2013-04-22 21:25:00,48.2,35.0,30.39,North,354,2.0,5.0,60,0.00,,,0.00,Wunderground v.1.15,2013-04-23 01:25:00,
2013-04-22 21:26:00,48.1,34.9,30.38,North,354,6.0,7.0,60,0.00,,,0.00,Wunderground v.1.15,2013-04-23 01:26:00,
2013-04-22 21:30:00,48.3,35.0,30.38,NNW,328,2.0,3.0,60,0.00,,,0.00,Wunderground v.1.15,2013-04-23 01:30:00,
2013-04-22 21:31:00,48.3,35.0,30.39,NE,55,6.0,6.0,60,0.00,,,0.00,Wunderground v.1.15,2013-04-23 01:31:00,
2013-04-22 21:35:00,48.6,35.3,30.38,NNW,343,3.0,6.0,60,0.00,,,0.00,Wunderground v.1.15,2013-04-23 01:35:00,
2013-04-22 21:36:00,48.6,34.9,30.38,NNE,18,2.0,6.0,59,0.00,,,0.00,Wunderground v.1.15,2013-04-23 01:36:00,
2013-04-22 21:40:00,48.6,34.9,30.38,NNE,18,3.0,3.0,59,0.00,,,0.00,Wunderground v.1.15,2013-04-23 01:40:00,
2013-04-22 21:41:00,48.6,34.9,30.38,NNE,20,5.0,6.0,59,0.00,,,0.00,Wunderground v.1.15,2013-04-23 01:41:00,
2013-04-22 21:42:00,48.6,34.9,30.38,NNE,33,3.0,6.0,59,0.00,,,0.00,Wunderground v.1.15,2013-04-23 01:42:00,
2013-04-22 21:45:00,48.7,35.0,30.39,East,94,2.0,6.0,59,0.00,,,0.00,Wunderground v.1.15,2013-04-23 01:45:00,
2013-04-22 21:46:00,48.8,35.1,30.39,East,94,1.0,6.0,59,0.00,,,0.00,Wunderground v.1.15,2013-04-23 01:46:00,
2013-04-22 21:47:00,48.9,35.2,30.39,ESE,108,1.0,6.0,59,0.00,,,0.00,Wunderground v.1.15,2013-04-23 01:47:00,
2013-04-22 21:50:00,48.7,35.0,30.39,NW,319,2.0,3.0,59,0.00,,,0.00,Wunderground v.1.15,2013-04-23 01:50:00,
2013-04-22 21:51:00,48.5,35.2,30.39,North,352,1.0,3.0,60,0.00,,,0.00,Wunderground v.1.15,2013-04-23 01:51:00,
2013-04-22 21:52:00,48.5,35.2,30.39,NNW,330,1.0,3.0,60,0.00,,,0.00,Wunderground v.1.15,2013-04-23 01:52:00,
2013-04-22 21:53:00,48.3,35.5,30.39,NNE,30,4.0,5.0,61,0.00,,,0.00,Wunderground v.1.15,2013-04-23 01:53:00,
2013-04-22 21:56:00,47.9,35.1,30.39,NNE,26,3.0,5.0,61,0.00,,,0.00,Wunderground v.1.15,2013-04-23 01:56:00,
2013-04-22 21:57:00,47.8,35.4,30.39,NNE,30,1.0,5.0,62,0.00,,,0.00,Wunderground v.1.15,2013-04-23 01:57:00,
2013-04-22 21:59:00,47.8,35.4,30.39,NNE,33,2.0,5.0,62,0.00,,,0.00,Wunderground v.1.15,2013-04-23 01:59:00,
2013-04-22 22:02:00,47.8,35.4,30.39,NNE,29,1.0,3.0,62,0.00,,,0.00,Wunderground v.1.15,2013-04-23 02:02:00,
2013-04-22 22:03:00,47.7,35.3,30.39,ENE,71,2.0,3.0,62,0.00,,,0.00,Wunderground v.1.15,2013-04-23 02:03:00,
2013-04-22 22:04:00,47.7,35.3,30.39,NE,55,1.0,3.0,62,0.00,,,0.00,Wunderground v.1.15,2013-04-23 02:04:00,
2013-04-22 22:07:00,47.4,35.0,30.39,ENE,70,0.0,3.0,62,0.00,,,0.00,Wunderground v.1.15,2013-04-23 02:07:00,
2013-04-22 22:09:00,47.3,35.3,30.39,NNW,338,1.0,3.0,63,0.00,,,0.00,Wunderground v.1.15,2013-04-23 02:09:00,
2013-04-22 22:13:00,47.0,35.4,30.39,NW,324,0.0,2.0,64,0.00,,,0.00,Wunderground v.1.15,2013-04-23 02:13:00,
2013-04-22 22:14:00,46.8,35.3,30.39,NNE,33,1.0,2.0,64,0.00,,,0.00,Wunderground v.1.15,2013-04-23 02:14:00,
2013-04-22 22:18:00,46.4,35.3,30.39,NNE,29,1.0,2.0,65,0.00,,,0.00,Wunderground v.1.15,2013-04-23 02:18:00,
2013-04-22 22:19:00,46.3,35.2,30.39,NNE,29,0.0,2.0,65,0.00,,,0.00,Wunderground v.1.15,2013-04-23 02:19:00,
2013-04-22 22:23:00,46.0,35.3,30.39,WNW,283,2.0,4.0,66,0.00,,,0.00,Wunderground v.1.15,2013-04-23 02:23:00,
2013-04-22 22:24:00,45.9,35.2,30.39,WNW,283,1.0,4.0,66,0.00,,,0.00,Wunderground v.1.15,2013-04-23 02:24:00,
2013-04-22 22:25:00,45.8,35.5,30.39,WNW,282,0.0,4.0,67,0.00,,,0.00,Wunderground v.1.15,2013-04-23 02:25:00,
2013-04-22 22:29:00,45.3,35.4,30.39,West,281,1.0,4.0,68,0.00,,,0.00,Wunderground v.1.15,2013-04-23 02:29:00,
2013-04-22 22:30:00,45.1,35.5,30.39,West,274,2.0,2.0,69,0.00,,,0.00,Wunderground v.1.15,2013-04-23 02:30:00,
2013-04-22 22:34:00,44.7,35.5,30.39,West,271,1.0,2.0,70,0.00,,,0.00,Wunderground v.1.15,2013-04-23 02:34:00,
2013-04-22 22:35:00,44.7,35.5,30.39,West,260,2.0,2.0,70,0.00,,,0.00,Wunderground v.1.15,2013-04-23 02:35:00,
2013-04-22 22:36:00,44.5,35.7,30.39,West,266,2.0,3.0,71,0.00,,,0.00,Wunderground v.1.15,2013-04-23 02:36:00,
2013-04-22 22:39:00,43.8,35.4,30.39,West,265,0.0,2.0,72,0.00,,,0.00,Wunderground v.1.15,2013-04-23 02:39:00,
2013-04-22 22:40:00,43.7,35.3,30.39,West,266,0.0,2.0,72,0.00,,,0.00,Wunderground v.1.15,2013-04-23 02:40:00,
2013-04-22 22:41:00,43.6,35.5,30.39,West,266,0.0,2.0,73,0.00,,,0.00,Wunderground v.1.15,2013-04-23 02:41:00,
2013-04-22 22:45:00,43.1,35.4,30.39,WSW,251,1.0,2.0,74,0.00,,,0.00,Wunderground v.1.15,2013-04-23 02:45:00,
2013-04-22 22:46:00,43.0,35.6,30.39,WSW,250,1.0,2.0,75,0.00,,,0.00,Wunderground v.1.15,2013-04-23 02:46:00,
2013-04-22 22:50:00,43.1,35.4,30.39,SSW,200,2.0,2.0,74,0.00,,,0.00,Wunderground v.1.15,2013-04-23 02:50:00,
2013-04-22 22:51:00,43.2,35.5,30.39,SW,217,1.0,2.0,74,0.00,,,0.00,Wunderground v.1.15,2013-04-23 02:51:00,
2013-04-22 22:52:00,43.2,35.5,30.39,NW,305,1.0,2.0,74,0.00,,,0.00,Wunderground v.1.15,2013-04-23 02:52:00,
2013-04-22 22:56:00,44.0,35.6,30.39,NW,323,1.0,4.0,72,0.00,,,0.00,Wunderground v.1.15,2013-04-23 02:56:00,
2013-04-22 22:58:00,44.3,35.5,30.39,NW,316,1.0,4.0,71,0.00,,,0.00,Wunderground v.1.15,2013-04-23 02:58:00,
2013-04-22 23:01:00,44.3,35.5,30.39,NW,314,1.0,2.0,71,0.00,,,0.00,Wunderground v.1.15,2013-04-23 03:01:00,
2013-04-22 23:02:00,44.3,35.5,30.39,NW,319,1.0,2.0,71,0.00,,,0.00,Wunderground v.1.15,2013-04-23 03:02:00,
2013-04-22 23:04:00,44.1,35.6,30.39,WNW,295,4.0,4.0,72,0.00,,,0.00,Wunderground v.1.15,2013-04-23 03:04:00,
2013-04-22 23:06:00,44.3,35.5,30.39,WNW,283,2.0,5.0,71,0.00,,,0.00,Wunderground v.1.15,2013-04-23 03:06:00,
2013-04-22 23:07:00,44.4,35.6,30.39,NW,310,2.0,5.0,71,0.00,,,0.00,Wunderground v.1.15,2013-04-23 03:07:00,
2013-04-22 23:09:00,44.5,35.3,30.38,WNW,293,1.0,5.0,70,0.00,,,0.00,Wunderground v.1.15,2013-04-23 03:09:00,
2013-04-22 23:10:00,44.5,35.3,30.39,WNW,297,2.0,3.0,70,0.00,,,0.00,Wunderground v.1.15,2013-04-23 03:10:00,
2013-04-22 23:12:00,44.5,35.3,30.38,WNW,302,2.0,3.0,70,0.00,,,0.00,Wunderground v.1.15,2013-04-23 03:12:00,
2013-04-22 23:13:00,44.5,35.3,30.39,WNW,292,1.0,3.0,70,0.00,,,0.00,Wunderground v.1.15,2013-04-23 03:13:00,
2013-04-22 23:14:00,44.4,35.2,30.39,North,5,0.0,3.0,70,0.00,,,0.00,Wunderground v.1.15,2013-04-23 03:14:00,
2013-04-22 23:15:00,44.4,35.6,30.38,NE,55,1.0,3.0,71,0.00,,,0.00,Wunderground v.1.15,2013-04-23 03:15:00,
2013-04-22 23:17:00,44.1,35.6,30.38,SW,217,1.0,3.0,72,0.00,,,0.00,Wunderground v.1.15,2013-04-23 03:17:00,
2013-04-22 23:18:00,43.9,35.5,30.38,SW,216,0.0,3.0,72,0.00,,,0.00,Wunderground v.1.15,2013-04-23 03:18:00,
2013-04-22 23:19:00,43.8,35.4,30.38,SW,217,0.0,3.0,72,0.00,,,0.00,Wunderground v.1.15,2013-04-23 03:19:00,
2013-04-22 23:20:00,43.7,35.6,30.38,SW,217,0.0,1.0,73,0.00,,,0.00,Wunderground v.1.15,2013-04-23 03:20:00,
2013-04-22 23:22:00,43.3,35.6,30.38,SW,231,0.0,1.0,74,0.00,,,0.00,Wunderground v.1.15,2013-04-23 03:22:00,
2013-04-22 23:24:00,43.1,35.4,30.38,SW,231,0.0,1.0,74,0.00,,,0.00,Wunderground v.1.15,2013-04-23 03:24:00,
2013-04-22 23:25:00,43.0,35.3,30.38,SW,231,0.0,1.0,74,0.00,,,0.00,Wunderground v.1.15,2013-04-23 03:25:00,
2013-04-22 23:26:00,42.9,35.2,30.38,SW,231,0.0,1.0,74,0.00,,,0.00,Wunderground v.1.15,2013-04-23 03:26:00,
2013-04-22 23:27:00,42.8,35.4,30.38,SW,233,2.0,2.0,75,0.00,,,0.00,Wunderground v.1.15,2013-04-23 03:27:00,
2013-04-22 23:29:00,42.7,35.3,30.38,WSW,247,1.0,2.0,75,0.00,,,0.00,Wunderground v.1.15,2013-04-23 03:29:00,
2013-04-22 23:31:00,42.7,35.3,30.38,WSW,248,1.0,1.0,75,0.00,,,0.00,Wunderground v.1.15,2013-04-23 03:31:00,
2013-04-22 23:32:00,42.4,35.4,30.38,SE,131,1.0,2.0,76,0.00,,,0.00,Wunderground v.1.15,2013-04-23 03:32:00,
2013-04-22 23:34:00,42.1,35.1,30.38,SE,131,0.0,2.0,76,0.00,,,0.00,Wunderground v.1.15,2013-04-23 03:34:00,
2013-04-22 23:35:00,42.0,35.0,30.38,SE,131,1.0,2.0,76,0.00,,,0.00,Wunderground v.1.15,2013-04-23 03:35:00,
2013-04-22 23:36:00,41.9,35.2,30.37,SE,131,0.0,2.0,77,0.00,,,0.00,Wunderground v.1.15,2013-04-23 03:36:00,
2013-04-22 23:38:00,41.5,35.2,30.37,SE,131,0.0,2.0,78,0.00,,,0.00,Wunderground v.1.15,2013-04-23 03:38:00,
2013-04-22 23:39:00,41.4,35.1,30.37,SE,131,0.0,1.0,78,0.00,,,0.00,Wunderground v.1.15,2013-04-23 03:39:00,
2013-04-22 23:41:00,41.3,35.0,30.37,SE,131,0.0,1.0,78,0.00,,,0.00,Wunderground v.1.15,2013-04-23 03:41:00,
2013-04-22 23:42:00,41.3,35.0,30.37,SE,131,0.0,1.0,78,0.00,,,0.00,Wunderground v.1.15,2013-04-23 03:42:00,
2013-04-22 23:43:00,41.3,35.0,30.37,WNW,291,1.0,2.0,78,0.00,,,0.00,Wunderground v.1.15,2013-04-23 03:43:00,
2013-04-22 23:44:00,41.3,35.0,30.37,WNW,291,0.0,2.0,78,0.00,,,0.00,Wunderground v.1.15,2013-04-23 03:44:00,
2013-04-22 23:46:00,41.3,35.0,30.38,ESE,113,0.0,2.0,78,0.00,,,0.00,Wunderground v.1.15,2013-04-23 03:46:00,
2013-04-22 23:47:00,41.3,35.0,30.38,ESE,113,0.0,2.0,78,0.00,,,0.00,Wunderground v.1.15,2013-04-23 03:47:00,
2013-04-22 23:48:00,41.2,34.9,30.38,ESE,113,0.0,2.0,78,0.00,,,0.00,Wunderground v.1.15,2013-04-23 03:48:00,
2013-04-22 23:49:00,41.2,34.9,30.38,ESE,113,0.0,0.0,78,0.00,,,0.00,Wunderground v.1.15,2013-04-23 03:49:00,
2013-04-22 23:52:00,41.1,35.1,30.38,WSW,242,1.0,2.0,79,0.00,,,0.00,Wunderground v.1.15,2013-04-23 03:52:00,
2013-04-22 23:53:00,41.1,35.1,30.38,WSW,248,0.0,3.0,79,0.00,,,0.00,Wunderground v.1.15,2013-04-23 03:53:00,
2013-04-22 23:55:00,41.0,35.0,30.38,WSW,248,0.0,3.0,79,0.00,,,0.00,Wunderground v.1.15,2013-04-23 03:55:00,
2013-04-22 23:57:00,40.9,35.2,30.38,West,271,1.0,3.0,80,0.00,,,0.00,Wunderground v.1.15,2013-04-23 03:57:00,
2013-04-22 23:58:00,41.0,35.3,30.38,West,271,1.0,3.0,80,0.00,,,0.00,Wunderground v.1.15,2013-04-23 03:58:00,